Wetterdaten: Montag, 05.10.2020
Datum Zeit Temp. Aussen Temp. o. S. Temp +5cm Feuchte Auss Luftdruck Regen Sonnenschein Regendauer Solar Windben Empfang
05.10.2020 00:00 10,4 C 10,0 C 9,4 C 92 % 998,0 hPa 0,0 l/m 0 min 0 min 0 W/m 25,7 km/h (4 Bft) 97,87 %
05.10.2020 00:02 10,4 C 10,0 C 9,4 C 92 % 998,0 hPa 0,0 l/m 0 min 0 min 0 W/m 32,2 km/h (5 Bft) 90,91 %
05.10.2020 00:04 10,4 C 10,0 C 9,4 C 92 % 998,0 hPa 0,0 l/m 0 min 0 min 0 W/m 12,9 km/h (3 Bft) 46,15 %
05.10.2020 00:07 10,4 C 10,0 C 9,4 C 92 % 998,0 hPa 0,0 l/m 0 min 0 min 0 W/m 22,5 km/h (4 Bft) 96,34 %
05.10.2020 00:08 10,5 C 10,0 C 9,4 C 92 % 998,0 hPa 0,0 l/m 0 min 0 min 0 W/m 12,9 km/h (3 Bft) 100,00 %
05.10.2020 00:10 10,5 C 10,0 C 9,4 C 92 % 998,1 hPa 0,0 l/m 0 min 0 min 0 W/m 16,1 km/h (3 Bft) 97,87 %
05.10.2020 00:12 10,5 C 10,0 C 9,4 C 92 % 998,0 hPa 0,0 l/m 0 min 0 min 0 W/m 16,1 km/h (3 Bft) 97,87 %
05.10.2020 00:14 10,6 C 10,0 C 9,4 C 92 % 998,0 hPa 0,0 l/m 0 min 0 min 0 W/m 19,3 km/h (3 Bft) 97,87 %
05.10.2020 00:16 10,6 C 10,0 C 9,4 C 92 % 998,1 hPa 0,0 l/m 0 min 0 min 0 W/m 12,9 km/h (3 Bft) 97,87 %
05.10.2020 00:18 10,6 C 10,0 C 9,4 C 92 % 998,0 hPa 0,0 l/m 0 min 0 min 0 W/m 16,1 km/h (3 Bft) 97,87 %
05.10.2020 00:20 10,6 C 10,0 C 9,4 C 92 % 998,1 hPa 0,0 l/m 0 min 0 min 0 W/m 29,0 km/h (5 Bft) 97,83 %
05.10.2020 00:22 10,6 C 10,0 C 9,4 C 92 % 998,0 hPa 0,0 l/m 0 min 0 min 0 W/m 19,3 km/h (3 Bft) 93,62 %
05.10.2020 00:24 10,6 C 10,0 C 9,4 C 92 % 998,1 hPa 0,0 l/m 0 min 0 min 0 W/m 16,1 km/h (3 Bft) 100,00 %
05.10.2020 00:26 10,6 C 10,0 C 9,4 C 92 % 998,1 hPa 0,0 l/m 0 min 0 min 0 W/m 25,7 km/h (4 Bft) 100,00 %
05.10.2020 00:28 10,6 C 10,0 C 9,4 C 92 % 998,0 hPa 0,0 l/m 0 min 0 min 0 W/m 22,5 km/h (4 Bft) 97,87 %
05.10.2020 00:30 10,7 C 10,0 C 9,4 C 92 % 998,0 hPa 0,0 l/m 0 min 0 min 0 W/m 22,5 km/h (4 Bft) 100,00 %
05.10.2020 00:32 10,7 C 10,0 C 9,4 C 91 % 998,0 hPa 0,0 l/m 0 min 0 min 0 W/m 35,4 km/h (5 Bft) 95,65 %
05.10.2020 00:34 10,7 C 10,0 C 9,4 C 91 % 998,0 hPa 0,0 l/m 0 min 0 min 0 W/m 25,7 km/h (4 Bft) 97,87 %
05.10.2020 00:36 10,7 C 10,0 C 10,0 C 91 % 998,0 hPa 0,0 l/m 0 min 0 min 0 W/m 22,5 km/h (4 Bft) 95,74 %
05.10.2020 00:38 10,8 C 10,0 C 10,0 C 91 % 998,0 hPa 0,0 l/m 0 min 0 min 0 W/m 32,2 km/h (5 Bft) 97,87 %
05.10.2020 00:40 10,8 C 10,0 C 9,4 C 91 % 998,0 hPa 0,0 l/m 0 min 0 min 0 W/m 12,9 km/h (3 Bft) 97,87 %
05.10.2020 00:42 10,8 C 10,0 C 9,4 C 91 % 998,0 hPa 0,0 l/m 0 min 0 min 0 W/m 19,3 km/h (3 Bft) 97,83 %
05.10.2020 00:44 10,8 C 10,0 C 9,4 C 91 % 998,0 hPa 0,0 l/m 0 min 0 min 0 W/m 25,7 km/h (4 Bft) 95,74 %
05.10.2020 00:46 10,8 C 10,0 C 9,4 C 91 % 998,0 hPa 0,0 l/m 0 min 0 min 0 W/m 22,5 km/h (4 Bft) 97,87 %
05.10.2020 00:48 10,8 C 10,0 C 9,4 C 91 % 998,0 hPa 0,0 l/m 0 min 0 min 0 W/m 19,3 km/h (3 Bft) 95,74 %
05.10.2020 00:50 10,8 C 10,0 C 9,4 C 91 % 998,1 hPa 0,0 l/m 0 min 0 min 0 W/m 19,3 km/h (3 Bft) 97,87 %
05.10.2020 00:52 10,8 C 10,0 C 9,4 C 91 % 998,1 hPa 0,0 l/m 0 min 0 min 0 W/m 22,5 km/h (4 Bft) 97,87 %
05.10.2020 00:54 10,8 C 10,0 C 9,4 C 91 % 998,1 hPa 0,0 l/m 0 min 0 min 0 W/m 35,4 km/h (5 Bft) 97,83 %
05.10.2020 00:56 10,8 C 10,0 C 9,4 C 91 % 998,1 hPa 0,0 l/m 0 min 0 min 0 W/m 22,5 km/h (4 Bft) 97,87 %
05.10.2020 00:58 10,8 C 10,0 C 9,4 C 91 % 998,1 hPa 0,0 l/m 0 min 0 min 0 W/m 22,5 km/h (4 Bft) 97,87 %
05.10.2020 01:00 10,8 C 10,0 C 9,4 C 91 % 998,1 hPa 0,0 l/m 0 min 0 min 0 W/m 22,5 km/h (4 Bft) 95,74 %
05.10.2020 01:02 10,8 C 10,0 C 9,4 C 91 % 998,1 hPa 0,0 l/m 0 min 0 min 0 W/m 25,7 km/h (4 Bft) 97,87 %
05.10.2020 01:04 10,9 C 10,0 C 9,4 C 91 % 998,1 hPa 0,0 l/m 0 min 0 min 0 W/m 19,3 km/h (3 Bft) 98,04 %
05.10.2020 01:06 10,9 C 10,6 C 10,0 C 91 % 998,0 hPa 0,0 l/m 0 min 0 min 0 W/m 25,7 km/h (4 Bft) 97,87 %
05.10.2020 01:08 10,9 C 10,6 C 10,0 C 91 % 998,1 hPa 0,0 l/m 0 min 0 min 0 W/m 22,5 km/h (4 Bft) 97,83 %
05.10.2020 01:10 10,9 C 10,6 C 10,0 C 91 % 998,1 hPa 0,0 l/m 0 min 0 min 0 W/m 38,6 km/h (5 Bft) 95,74 %
05.10.2020 01:12 10,9 C 10,6 C 10,0 C 91 % 998,1 hPa 0,0 l/m 0 min 0 min 0 W/m 25,7 km/h (4 Bft) 93,62 %
05.10.2020 01:14 10,9 C 10,6 C 10,0 C 91 % 998,1 hPa 0,0 l/m 0 min 0 min 0 W/m 12,9 km/h (3 Bft) 97,87 %
05.10.2020 01:16 10,9 C 10,6 C 10,0 C 91 % 998,1 hPa 0,0 l/m 0 min 0 min 0 W/m 22,5 km/h (4 Bft) 95,74 %
05.10.2020 01:18 11,0 C 10,6 C 10,0 C 91 % 998,1 hPa 0,0 l/m 0 min 0 min 0 W/m 19,3 km/h (3 Bft) 97,87 %
05.10.2020 01:20 11,0 C 10,6 C 10,0 C 91 % 998,1 hPa 0,0 l/m 0 min 0 min 0 W/m 25,7 km/h (4 Bft) 100,00 %
05.10.2020 01:22 11,1 C 10,6 C 10,0 C 91 % 998,1 hPa 0,0 l/m 0 min 0 min 0 W/m 25,7 km/h (4 Bft) 100,00 %
05.10.2020 01:24 11,1 C 10,6 C 10,0 C 91 % 998,1 hPa 0,0 l/m 0 min 0 min 0 W/m 22,5 km/h (4 Bft) 97,87 %
05.10.2020 01:26 11,1 C 10,6 C 10,0 C 91 % 998,1 hPa 0,0 l/m 0 min 0 min 0 W/m 32,2 km/h (5 Bft) 97,87 %
05.10.2020 01:28 11,1 C 10,6 C 10,0 C 91 % 998,1 hPa 0,0 l/m 0 min 0 min 0 W/m 29,0 km/h (5 Bft) 100,00 %
05.10.2020 01:30 11,1 C 10,6 C 10,0 C 91 % 998,1 hPa 0,0 l/m 0 min 0 min 0 W/m 22,5 km/h (4 Bft) 100,00 %
05.10.2020 01:32 11,2 C 10,6 C 10,0 C 91 % 998,2 hPa 0,0 l/m 0 min 0 min 0 W/m 25,7 km/h (4 Bft) 100,00 %
05.10.2020 01:34 11,2 C 10,6 C 10,0 C 90 % 998,2 hPa 0,0 l/m 0 min 0 min 0 W/m 22,5 km/h (4 Bft) 100,00 %
05.10.2020 01:36 11,2 C 10,6 C 10,0 C 90 % 998,2 hPa 0,0 l/m 0 min 0 min 0 W/m 16,1 km/h (3 Bft) 100,00 %
05.10.2020 01:38 11,2 C 10,6 C 10,0 C 90 % 998,2 hPa 0,0 l/m 0 min 0 min 0 W/m 25,7 km/h (4 Bft) 100,00 %
05.10.2020 01:40 11,2 C 10,6 C 10,0 C 90 % 998,1 hPa 0,0 l/m 0 min 0 min 0 W/m 19,3 km/h (3 Bft) 100,00 %
05.10.2020 01:42 11,2 C 10,6 C 10,0 C 90 % 998,2 hPa 0,0 l/m 0 min 0 min 0 W/m 22,5 km/h (4 Bft) 100,00 %
05.10.2020 01:44 11,2 C 10,6 C 10,0 C 90 % 998,1 hPa 0,0 l/m 0 min 0 min 0 W/m 25,7 km/h (4 Bft) 100,00 %
05.10.2020 01:46 11,2 C 10,6 C 10,0 C 90 % 998,1 hPa 0,0 l/m 0 min 0 min 0 W/m 38,6 km/h (5 Bft) 97,87 %
05.10.2020 01:48 11,2 C 10,6 C 10,0 C 90 % 998,1 hPa 0,0 l/m 0 min 0 min 0 W/m 19,3 km/h (3 Bft) 97,87 %
05.10.2020 01:50 11,2 C 10,0 C 10,0 C 90 % 998,1 hPa 0,0 l/m 0 min 0 min 0 W/m 19,3 km/h (3 Bft) 100,00 %
05.10.2020 01:52 11,2 C 10,0 C 10,0 C 90 % 998,0 hPa 0,0 l/m 0 min 0 min 0 W/m 25,7 km/h (4 Bft) 97,87 %
05.10.2020 01:54 11,2 C 10,0 C 10,0 C 90 % 998,1 hPa 0,0 l/m 0 min 0 min 0 W/m 16,1 km/h (3 Bft) 97,87 %
05.10.2020 01:56 11,2 C 10,0 C 9,4 C 90 % 998,1 hPa 0,0 l/m 0 min 0 min 0 W/m 19,3 km/h (3 Bft) 97,87 %
05.10.2020 01:58 11,2 C 10,0 C 9,4 C 90 % 998,1 hPa 0,0 l/m 0 min 0 min 0 W/m 19,3 km/h (3 Bft) 100,00 %
05.10.2020 02:00 11,1 C 10,0 C 9,4 C 90 % 998,2 hPa 0,0 l/m 0 min 0 min 0 W/m 29,0 km/h (5 Bft) 97,87 %
05.10.2020 02:02 11,1 C 10,0 C 9,4 C 90 % 998,2 hPa 0,0 l/m 0 min 0 min 0 W/m 19,3 km/h (3 Bft) 100,00 %
05.10.2020 02:04 11,1 C 10,0 C 9,4 C 90 % 998,1 hPa 0,0 l/m 0 min 0 min 0 W/m 19,3 km/h (3 Bft) 97,87 %
05.10.2020 02:06 11,1 C 10,0 C 9,4 C 90 % 998,1 hPa 0,0 l/m 0 min 0 min 0 W/m 12,9 km/h (3 Bft) 97,87 %
05.10.2020 02:08 11,1 C 10,0 C 9,4 C 90 % 998,2 hPa 0,0 l/m 0 min 0 min 0 W/m 19,3 km/h (3 Bft) 97,87 %
05.10.2020 02:10 11,1 C 10,0 C 9,4 C 90 % 998,2 hPa 0,0 l/m 0 min 0 min 0 W/m 16,1 km/h (3 Bft) 97,87 %
05.10.2020 02:12 11,1 C 10,0 C 9,4 C 90 % 998,2 hPa 0,0 l/m 0 min 0 min 0 W/m 19,3 km/h (3 Bft) 97,87 %
05.10.2020 02:14 11,1 C 10,0 C 9,4 C 91 % 998,1 hPa 0,0 l/m 0 min 0 min 0 W/m 12,9 km/h (3 Bft) 97,83 %
05.10.2020 02:16 11,0 C 10,0 C 9,4 C 91 % 998,2 hPa 0,0 l/m 0 min 0 min 0 W/m 22,5 km/h (4 Bft) 95,74 %
05.10.2020 02:18 11,0 C 10,0 C 9,4 C 90 % 998,2 hPa 0,0 l/m 0 min 0 min 0 W/m 25,7 km/h (4 Bft) 95,74 %
05.10.2020 02:20 11,0 C 10,0 C 9,4 C 90 % 998,2 hPa 0,0 l/m 0 min 0 min 0 W/m 22,5 km/h (4 Bft) 97,87 %
05.10.2020 02:22 10,9 C 10,0 C 9,4 C 91 % 998,2 hPa 0,0 l/m 0 min 0 min 0 W/m 19,3 km/h (3 Bft) 97,87 %
05.10.2020 02:24 10,9 C 10,0 C 9,4 C 91 % 998,3 hPa 0,0 l/m 0 min 0 min 0 W/m 16,1 km/h (3 Bft) 95,65 %
05.10.2020 02:26 10,9 C 10,0 C 9,4 C 91 % 998,2 hPa 0,0 l/m 0 min 0 min 0 W/m 22,5 km/h (4 Bft) 95,74 %
05.10.2020 02:28 10,9 C 10,0 C 9,4 C 91 % 998,3 hPa 0,0 l/m 0 min 0 min 0 W/m 19,3 km/h (3 Bft) 97,87 %
05.10.2020 02:30 10,9 C 10,0 C 9,4 C 91 % 998,3 hPa 0,0 l/m 0 min 0 min 0 W/m 16,1 km/h (3 Bft) 97,87 %
05.10.2020 02:32 10,9 C 10,0 C 9,4 C 91 % 998,2 hPa 0,0 l/m 0 min 0 min 0 W/m 25,7 km/h (4 Bft) 97,87 %
05.10.2020 02:34 10,9 C 10,0 C 9,4 C 91 % 998,2 hPa 0,0 l/m 0 min 0 min 0 W/m 16,1 km/h (3 Bft) 95,74 %
05.10.2020 02:36 10,9 C 10,0 C 9,4 C 91 % 998,2 hPa 0,0 l/m 0 min 0 min 0 W/m 19,3 km/h (3 Bft) 95,65 %
05.10.2020 02:38 10,8 C 10,0 C 9,4 C 91 % 998,2 hPa 0,0 l/m 0 min 0 min 0 W/m 22,5 km/h (4 Bft) 97,87 %
05.10.2020 02:40 10,9 C 10,0 C 9,4 C 91 % 998,3 hPa 0,0 l/m 0 min 0 min 0 W/m 32,2 km/h (5 Bft) 97,87 %
05.10.2020 02:42 10,9 C 10,0 C 9,4 C 91 % 998,3 hPa 0,0 l/m 0 min 0 min 0 W/m 16,1 km/h (3 Bft) 97,87 %
05.10.2020 02:44 10,9 C 10,0 C 10,0 C 91 % 998,3 hPa 0,0 l/m 0 min 0 min 0 W/m 16,1 km/h (3 Bft) 97,87 %
05.10.2020 02:46 10,9 C 10,0 C 10,0 C 91 % 998,3 hPa 0,0 l/m 0 min 0 min 0 W/m 22,5 km/h (4 Bft) 95,74 %
05.10.2020 02:48 10,9 C 10,6 C 10,0 C 91 % 998,3 hPa 0,0 l/m 0 min 0 min 0 W/m 22,5 km/h (4 Bft) 95,65 %
05.10.2020 02:50 10,9 C 10,6 C 10,0 C 91 % 998,3 hPa 0,0 l/m 0 min 0 min 0 W/m 25,7 km/h (4 Bft) 97,87 %
05.10.2020 02:52 10,9 C 10,6 C 10,0 C 91 % 998,3 hPa 0,0 l/m 0 min 0 min 0 W/m 22,5 km/h (4 Bft) 95,74 %
05.10.2020 02:54 10,9 C 10,6 C 10,0 C 91 % 998,3 hPa 0,0 l/m 0 min 0 min 0 W/m 22,5 km/h (4 Bft) 97,87 %
05.10.2020 02:56 10,9 C 10,0 C 10,0 C 91 % 998,3 hPa 0,0 l/m 0 min 0 min 0 W/m 12,9 km/h (3 Bft) 97,87 %
05.10.2020 02:58 10,9 C 10,0 C 10,0 C 91 % 998,3 hPa 0,0 l/m 0 min 0 min 0 W/m 22,5 km/h (4 Bft) 97,87 %
05.10.2020 03:00 10,9 C 10,6 C 10,0 C 91 % 998,3 hPa 0,0 l/m 0 min 0 min 0 W/m 16,1 km/h (3 Bft) 97,83 %
05.10.2020 03:02 10,9 C 10,6 C 10,0 C 91 % 998,2 hPa 0,0 l/m 0 min 0 min 0 W/m 19,3 km/h (3 Bft) 97,87 %
05.10.2020 03:04 10,9 C 10,0 C 10,0 C 91 % 998,2 hPa 0,0 l/m 0 min 0 min 0 W/m 16,1 km/h (3 Bft) 97,87 %
05.10.2020 03:06 10,9 C 10,0 C 10,0 C 91 % 998,3 hPa 0,0 l/m 0 min 0 min 0 W/m 19,3 km/h (3 Bft) 97,87 %
05.10.2020 03:08 11,0 C 10,6 C 10,0 C 91 % 998,2 hPa 0,0 l/m 0 min 0 min 0 W/m 16,1 km/h (3 Bft) 97,87 %
05.10.2020 03:10 11,0 C 10,6 C 10,0 C 91 % 998,3 hPa 0,0 l/m 0 min 0 min 0 W/m 25,7 km/h (4 Bft) 95,74 %
05.10.2020 03:12 11,0 C 10,6 C 10,0 C 91 % 998,3 hPa 0,0 l/m 0 min 0 min 0 W/m 16,1 km/h (3 Bft) 97,83 %
05.10.2020 03:14 11,0 C 10,6 C 10,0 C 91 % 998,3 hPa 0,0 l/m 0 min 0 min 0 W/m 16,1 km/h (3 Bft) 97,87 %
05.10.2020 03:16 11,0 C 10,6 C 10,0 C 91 % 998,3 hPa 0,0 l/m 0 min 0 min 0 W/m 19,3 km/h (3 Bft) 95,74 %
05.10.2020 03:18 11,0 C 10,6 C 10,0 C 91 % 998,3 hPa 0,0 l/m 0 min 0 min 0 W/m 32,2 km/h (5 Bft) 97,87 %
05.10.2020 03:20 11,0 C 10,6 C 10,0 C 91 % 998,3 hPa 0,0 l/m 0 min 0 min 0 W/m 22,5 km/h (4 Bft) 97,87 %
05.10.2020 03:22 11,0 C 10,6 C 10,0 C 91 % 998,2 hPa 0,0 l/m 0 min 0 min 0 W/m 22,5 km/h (4 Bft) 93,48 %
05.10.2020 03:24 11,0 C 10,6 C 10,0 C 91 % 998,3 hPa 0,0 l/m 0 min 0 min 0 W/m 29,0 km/h (5 Bft) 95,74 %
05.10.2020 03:26 11,1 C 10,6 C 10,0 C 91 % 998,3 hPa 0,0 l/m 0 min 0 min 0 W/m 22,5 km/h (4 Bft) 93,62 %
05.10.2020 03:28 11,1 C 10,6 C 10,0 C 91 % 998,2 hPa 0,0 l/m 0 min 0 min 0 W/m 12,9 km/h (3 Bft) 95,74 %
05.10.2020 03:30 11,1 C 10,6 C 10,0 C 91 % 998,2 hPa 0,0 l/m 0 min 0 min 0 W/m 22,5 km/h (4 Bft) 95,74 %
05.10.2020 03:32 11,1 C 10,6 C 10,0 C 91 % 998,2 hPa 0,0 l/m 0 min 0 min 0 W/m 16,1 km/h (3 Bft) 93,62 %
05.10.2020 03:34 11,1 C 10,6 C 10,0 C 91 % 998,2 hPa 0,0 l/m 0 min 0 min 0 W/m 25,7 km/h (4 Bft) 95,65 %
05.10.2020 03:36 11,1 C 10,6 C 10,0 C 91 % 998,1 hPa 0,0 l/m 0 min 0 min 0 W/m 19,3 km/h (3 Bft) 95,74 %
05.10.2020 03:38 11,1 C 10,6 C 10,0 C 91 % 998,1 hPa 0,0 l/m 0 min 0 min 0 W/m 25,7 km/h (4 Bft) 95,74 %
05.10.2020 03:40 11,1 C 10,6 C 10,0 C 91 % 998,1 hPa 0,0 l/m 0 min 0 min 0 W/m 19,3 km/h (3 Bft) 93,62 %
05.10.2020 03:42 11,1 C 10,6 C 10,0 C 91 % 998,1 hPa 0,0 l/m 0 min 0 min 0 W/m 22,5 km/h (4 Bft) 95,74 %
05.10.2020 03:44 11,1 C 10,6 C 10,0 C 91 % 998,2 hPa 0,0 l/m 0 min 0 min 0 W/m 12,9 km/h (3 Bft) 93,62 %
05.10.2020 03:46 11,1 C 10,0 C 10,0 C 91 % 998,1 hPa 0,0 l/m 0 min 0 min 0 W/m 19,3 km/h (3 Bft) 95,65 %
05.10.2020 03:48 11,1 C 10,0 C 10,0 C 90 % 998,1 hPa 0,0 l/m 0 min 0 min 0 W/m 25,7 km/h (4 Bft) 97,87 %
05.10.2020 03:50 11,1 C 10,0 C 10,0 C 90 % 998,0 hPa 0,0 l/m 0 min 0 min 0 W/m 16,1 km/h (3 Bft) 91,67 %
05.10.2020 03:55 11,1 C 10,0 C 9,4 C 90 % 997,9 hPa 0,0 l/m 0 min 0 min 0 W/m 29,0 km/h (5 Bft) 100,00 %
05.10.2020 04:00 11,0 C 10,0 C 9,4 C 90 % 998,0 hPa 0,0 l/m 0 min 0 min 0 W/m 22,5 km/h (4 Bft) 98,25 %
05.10.2020 04:05 11,0 C 10,0 C 9,4 C 90 % 998,0 hPa 0,0 l/m 0 min 0 min 0 W/m 19,3 km/h (3 Bft) 100,00 %
05.10.2020 04:10 10,9 C 10,0 C 9,4 C 90 % 998,0 hPa 0,0 l/m 0 min 0 min 0 W/m 22,5 km/h (4 Bft) 100,00 %
05.10.2020 04:15 10,9 C 10,0 C 9,4 C 90 % 998,1 hPa 0,0 l/m 0 min 0 min 0 W/m 22,5 km/h (4 Bft) 84,21 %
05.10.2020 04:20 10,9 C 10,0 C 9,4 C 90 % 998,0 hPa 0,0 l/m 0 min 0 min 0 W/m 22,5 km/h (4 Bft) 100,00 %
05.10.2020 04:25 10,8 C 10,0 C 9,4 C 90 % 998,0 hPa 0,0 l/m 0 min 0 min 0 W/m 29,0 km/h (5 Bft) 100,00 %
05.10.2020 04:30 10,8 C 10,0 C 9,4 C 90 % 998,1 hPa 0,0 l/m 0 min 0 min 0 W/m 25,7 km/h (4 Bft) 100,00 %
05.10.2020 04:35 10,8 C 10,0 C 9,4 C 90 % 998,0 hPa 0,0 l/m 0 min 0 min 0 W/m 29,0 km/h (5 Bft) 100,00 %
05.10.2020 04:40 10,7 C 10,0 C 9,4 C 90 % 998,0 hPa 0,0 l/m 0 min 0 min 0 W/m 35,4 km/h (5 Bft) 100,00 %
05.10.2020 04:45 10,7 C 10,0 C 9,4 C 90 % 998,0 hPa 0,0 l/m 0 min 0 min 0 W/m 22,5 km/h (4 Bft) 100,00 %
05.10.2020 04:50 10,7 C 10,0 C 9,4 C 90 % 998,1 hPa 0,0 l/m 0 min 0 min 0 W/m 22,5 km/h (4 Bft) 100,00 %
05.10.2020 04:55 10,7 C 10,0 C 9,4 C 90 % 998,1 hPa 0,0 l/m 0 min 0 min 0 W/m 22,5 km/h (4 Bft) 99,12 %
05.10.2020 05:00 10,7 C 10,0 C 9,4 C 90 % 998,0 hPa 0,0 l/m 0 min 0 min 0 W/m 29,0 km/h (5 Bft) 100,00 %
05.10.2020 05:05 10,7 C 10,0 C 9,4 C 90 % 998,0 hPa 0,0 l/m 0 min 0 min 0 W/m 29,0 km/h (5 Bft) 100,00 %
05.10.2020 05:10 10,7 C 10,0 C 9,4 C 90 % 998,0 hPa 0,0 l/m 0 min 0 min 0 W/m 35,4 km/h (5 Bft) 100,00 %
05.10.2020 05:15 10,7 C 10,0 C 9,4 C 90 % 998,0 hPa 0,0 l/m 0 min 0 min 0 W/m 25,7 km/h (4 Bft) 100,00 %
05.10.2020 05:20 10,7 C 10,0 C 9,4 C 90 % 998,2 hPa 0,0 l/m 0 min 0 min 0 W/m 25,7 km/h (4 Bft) 100,00 %
05.10.2020 05:25 10,8 C 10,0 C 9,4 C 90 % 998,2 hPa 0,0 l/m 0 min 0 min 0 W/m 25,7 km/h (4 Bft) 100,00 %
05.10.2020 05:30 10,8 C 10,0 C 9,4 C 90 % 998,2 hPa 0,0 l/m 0 min 0 min 0 W/m 25,7 km/h (4 Bft) 100,00 %
05.10.2020 05:35 10,8 C 10,0 C 9,4 C 90 % 998,2 hPa 0,0 l/m 0 min 0 min 0 W/m 19,3 km/h (3 Bft) 100,00 %
05.10.2020 05:40 10,8 C 10,0 C 9,4 C 90 % 998,2 hPa 0,0 l/m 0 min 0 min 0 W/m 25,7 km/h (4 Bft) 100,00 %
05.10.2020 05:45 10,8 C 10,0 C 9,4 C 90 % 998,2 hPa 0,0 l/m 0 min 0 min 0 W/m 25,7 km/h (4 Bft) 100,00 %
05.10.2020 05:50 10,8 C 10,0 C 9,4 C 90 % 998,3 hPa 0,0 l/m 0 min 0 min 0 W/m 19,3 km/h (3 Bft) 100,00 %
05.10.2020 05:55 10,7 C 10,0 C 9,4 C 90 % 998,3 hPa 0,0 l/m 0 min 0 min 0 W/m 22,5 km/h (4 Bft) 100,00 %
05.10.2020 06:00 10,7 C 10,0 C 9,4 C 90 % 998,3 hPa 0,0 l/m 0 min 0 min 0 W/m 22,5 km/h (4 Bft) 100,00 %
05.10.2020 06:05 10,7 C 10,0 C 9,4 C 90 % 998,3 hPa 0,0 l/m 0 min 0 min 0 W/m 19,3 km/h (3 Bft) 100,00 %
05.10.2020 06:10 10,7 C 10,0 C 9,4 C 90 % 998,3 hPa 0,0 l/m 0 min 0 min 0 W/m 19,3 km/h (3 Bft) 100,00 %
05.10.2020 06:15 10,7 C 10,0 C 9,4 C 90 % 998,3 hPa 0,0 l/m 0 min 0 min 0 W/m 19,3 km/h (3 Bft) 97,37 %
05.10.2020 06:20 10,7 C 10,0 C 9,4 C 90 % 998,3 hPa 0,0 l/m 0 min 0 min 0 W/m 29,0 km/h (5 Bft) 100,00 %
05.10.2020 06:25 10,7 C 10,0 C 9,4 C 91 % 998,3 hPa 0,0 l/m 0 min 0 min 0 W/m 25,7 km/h (4 Bft) 97,37 %
05.10.2020 06:30 10,7 C 10,0 C 9,4 C 91 % 998,2 hPa 0,0 l/m 0 min 0 min 0 W/m 19,3 km/h (3 Bft) 98,25 %
05.10.2020 06:35 10,7 C 10,0 C 9,4 C 91 % 998,3 hPa 0,0 l/m 0 min 0 min 0 W/m 22,5 km/h (4 Bft) 97,37 %
05.10.2020 06:40 10,7 C 10,0 C 9,4 C 91 % 998,3 hPa 0,0 l/m 0 min 0 min 0 W/m 22,5 km/h (4 Bft) 98,25 %
05.10.2020 06:45 10,7 C 10,0 C 9,4 C 90 % 998,3 hPa 0,0 l/m 0 min 0 min 0 W/m 25,7 km/h (4 Bft) 98,25 %
05.10.2020 06:50 10,7 C 10,0 C 9,4 C 90 % 998,2 hPa 0,0 l/m 0 min 0 min 0 W/m 32,2 km/h (5 Bft) 95,61 %
05.10.2020 06:55 10,7 C 10,0 C 9,4 C 90 % 998,3 hPa 0,0 l/m 0 min 0 min 0 W/m 22,5 km/h (4 Bft) 99,12 %
05.10.2020 07:00 10,7 C 10,0 C 9,4 C 90 % 998,3 hPa 0,0 l/m 0 min 0 min 0 W/m 35,4 km/h (5 Bft) 98,25 %
05.10.2020 07:05 10,7 C 10,0 C 9,4 C 90 % 998,2 hPa 0,0 l/m 0 min 0 min 0 W/m 25,7 km/h (4 Bft) 98,25 %
05.10.2020 07:10 10,7 C 10,0 C 10,0 C 90 % 998,2 hPa 0,0 l/m 0 min 0 min 0 W/m 29,0 km/h (5 Bft) 100,00 %
05.10.2020 07:15 10,8 C 10,0 C 9,4 C 90 % 998,2 hPa 0,0 l/m 0 min 0 min 0 W/m 22,5 km/h (4 Bft) 100,00 %
05.10.2020 07:20 10,8 C 10,0 C 10,0 C 90 % 998,3 hPa 0,0 l/m 0 min 0 min 0 W/m 29,0 km/h (5 Bft) 100,00 %
05.10.2020 07:25 10,8 C 10,0 C 10,0 C 90 % 998,3 hPa 0,0 l/m 0 min 0 min 0 W/m 35,4 km/h (5 Bft) 100,00 %
05.10.2020 07:30 10,8 C 10,0 C 9,4 C 90 % 998,2 hPa 0,0 l/m 0 min 0 min 0 W/m 25,7 km/h (4 Bft) 100,00 %
05.10.2020 07:35 10,8 C 10,0 C 9,4 C 90 % 998,2 hPa 0,0 l/m 0 min 0 min 0 W/m 22,5 km/h (4 Bft) 100,00 %
05.10.2020 07:40 10,8 C 10,0 C 9,4 C 90 % 998,2 hPa 0,0 l/m 0 min 0 min 0 W/m 22,5 km/h (4 Bft) 100,00 %
05.10.2020 07:45 10,8 C 10,0 C 10,0 C 89 % 998,2 hPa 0,0 l/m 0 min 0 min 0 W/m 22,5 km/h (4 Bft) 100,00 %
05.10.2020 07:50 10,9 C 10,0 C 10,0 C 89 % 998,2 hPa 0,0 l/m 0 min 0 min 5 W/m 19,3 km/h (3 Bft) 99,12 %
05.10.2020 07:56 10,9 C 10,0 C 10,0 C 90 % 998,3 hPa 0,0 l/m 0 min 0 min 5 W/m 19,3 km/h (3 Bft) 100,00 %
05.10.2020 07:58 10,9 C 10,0 C 10,0 C 90 % 998,3 hPa 0,0 l/m 0 min 0 min 5 W/m 22,5 km/h (4 Bft) 97,87 %
05.10.2020 08:00 10,9 C 10,0 C 10,0 C 90 % 998,3 hPa 0,0 l/m 0 min 0 min 3 W/m 16,1 km/h (3 Bft) 97,87 %
05.10.2020 08:02 10,9 C 10,0 C 10,0 C 90 % 998,3 hPa 0,0 l/m 0 min 0 min 0 W/m 19,3 km/h (3 Bft) 97,87 %
05.10.2020 08:04 10,9 C 10,6 C 10,0 C 90 % 998,3 hPa 0,0 l/m 0 min 0 min 1 W/m 19,3 km/h (3 Bft) 95,74 %
05.10.2020 08:06 10,9 C 10,6 C 10,0 C 90 % 998,4 hPa 0,0 l/m 0 min 0 min 5 W/m 19,3 km/h (3 Bft) 95,74 %
05.10.2020 08:08 10,9 C 10,6 C 10,0 C 90 % 998,4 hPa 0,0 l/m 0 min 0 min 5 W/m 19,3 km/h (3 Bft) 97,87 %
05.10.2020 08:10 10,9 C 10,0 C 10,0 C 90 % 998,4 hPa 0,0 l/m 0 min 2 min 5 W/m 19,3 km/h (3 Bft) 97,37 %
05.10.2020 08:12 10,9 C 10,0 C 10,0 C 90 % 998,4 hPa 0,0 l/m 0 min 2 min 5 W/m 22,5 km/h (4 Bft) 97,83 %
05.10.2020 08:14 10,9 C 10,0 C 10,0 C 90 % 998,4 hPa 0,0 l/m 0 min 0 min 7 W/m 16,1 km/h (3 Bft) 97,87 %
05.10.2020 08:16 10,9 C 10,0 C 10,0 C 90 % 998,4 hPa 0,0 l/m 0 min 2 min 7 W/m 12,9 km/h (3 Bft) 97,87 %
05.10.2020 08:18 11,0 C 10,0 C 10,0 C 90 % 998,5 hPa 0,0 l/m 0 min 0 min 7 W/m 19,3 km/h (3 Bft) 95,74 %
05.10.2020 08:20 11,0 C 10,0 C 10,0 C 90 % 998,4 hPa 0,0 l/m 0 min 0 min 7 W/m 9,7 km/h (2 Bft) 95,74 %
05.10.2020 08:22 11,0 C 10,0 C 10,0 C 90 % 998,4 hPa 0,0 l/m 0 min 2 min 9 W/m 22,5 km/h (4 Bft) 95,74 %
05.10.2020 08:24 11,0 C 10,0 C 10,0 C 90 % 998,5 hPa 0,0 l/m 0 min 2 min 9 W/m 22,5 km/h (4 Bft) 97,83 %
05.10.2020 08:26 11,0 C 10,0 C 9,4 C 90 % 998,5 hPa 0,0 l/m 0 min 2 min 11 W/m 12,9 km/h (3 Bft) 97,87 %
05.10.2020 08:28 11,0 C 10,0 C 9,4 C 90 % 998,5 hPa 0,0 l/m 0 min 2 min 11 W/m 25,7 km/h (4 Bft) 97,87 %
05.10.2020 08:30 11,0 C 10,0 C 9,4 C 90 % 998,5 hPa 0,0 l/m 0 min 2 min 12 W/m 16,1 km/h (3 Bft) 97,87 %
05.10.2020 08:32 11,0 C 10,0 C 9,4 C 90 % 998,5 hPa 0,0 l/m 0 min 0 min 13 W/m 22,5 km/h (4 Bft) 97,87 %
05.10.2020 08:34 11,0 C 10,0 C 9,4 C 90 % 998,5 hPa 0,0 l/m 0 min 0 min 14 W/m 25,7 km/h (4 Bft) 100,00 %
05.10.2020 08:36 11,0 C 10,0 C 9,4 C 90 % 998,5 hPa 0,0 l/m 0 min 0 min 14 W/m 22,5 km/h (4 Bft) 97,83 %
05.10.2020 08:38 11,0 C 10,0 C 9,4 C 90 % 998,5 hPa 0,0 l/m 0 min 0 min 15 W/m 19,3 km/h (3 Bft) 100,00 %
05.10.2020 08:40 11,0 C 10,0 C 9,4 C 90 % 998,6 hPa 0,0 l/m 0 min 0 min 16 W/m 22,5 km/h (4 Bft) 97,87 %
05.10.2020 08:42 11,0 C 10,6 C 9,4 C 90 % 998,6 hPa 0,0 l/m 0 min 0 min 16 W/m 25,7 km/h (4 Bft) 97,87 %
05.10.2020 08:44 11,1 C 10,6 C 9,4 C 90 % 998,6 hPa 0,0 l/m 0 min 0 min 16 W/m 19,3 km/h (3 Bft) 97,87 %
05.10.2020 08:46 11,0 C 10,6 C 10,0 C 90 % 998,6 hPa 0,0 l/m 0 min 0 min 18 W/m 16,1 km/h (3 Bft) 100,00 %
05.10.2020 08:48 11,0 C 10,6 C 9,4 C 90 % 998,6 hPa 0,0 l/m 0 min 0 min 18 W/m 12,9 km/h (3 Bft) 100,00 %
05.10.2020 08:50 11,0 C 10,6 C 9,4 C 90 % 998,7 hPa 0,0 l/m 0 min 0 min 18 W/m 19,3 km/h (3 Bft) 100,00 %
05.10.2020 08:52 11,0 C 10,6 C 9,4 C 90 % 998,6 hPa 0,0 l/m 0 min 0 min 19 W/m 16,1 km/h (3 Bft) 100,00 %
05.10.2020 08:54 11,1 C 10,6 C 9,4 C 90 % 998,7 hPa 0,0 l/m 0 min 0 min 19 W/m 16,1 km/h (3 Bft) 100,00 %
05.10.2020 08:56 11,1 C 10,6 C 9,4 C 90 % 998,6 hPa 0,0 l/m 0 min 2 min 20 W/m 25,7 km/h (4 Bft) 97,87 %
05.10.2020 08:58 11,1 C 10,0 C 9,4 C 90 % 998,6 hPa 0,0 l/m 0 min 0 min 21 W/m 22,5 km/h (4 Bft) 97,83 %
05.10.2020 09:00 11,1 C 10,0 C 9,4 C 90 % 998,6 hPa 0,0 l/m 0 min 2 min 23 W/m 16,1 km/h (3 Bft) 95,74 %
05.10.2020 09:02 11,1 C 10,0 C 9,4 C 90 % 998,6 hPa 0,0 l/m 0 min 2 min 23 W/m 12,9 km/h (3 Bft) 95,74 %
05.10.2020 09:04 11,1 C 9,4 C 9,4 C 90 % 998,6 hPa 0,0 l/m 0 min 2 min 24 W/m 35,4 km/h (5 Bft) 93,48 %
05.10.2020 09:06 11,1 C 9,4 C 9,4 C 90 % 998,6 hPa 0,0 l/m 0 min 2 min 26 W/m 16,1 km/h (3 Bft) 97,87 %
05.10.2020 09:08 11,1 C 9,4 C 9,4 C 90 % 998,6 hPa 0,0 l/m 0 min 2 min 29 W/m 16,1 km/h (3 Bft) 95,74 %
05.10.2020 09:10 11,1 C 9,4 C 9,4 C 90 % 998,6 hPa 0,0 l/m 0 min 2 min 28 W/m 16,1 km/h (3 Bft) 97,83 %
05.10.2020 09:12 11,1 C 9,4 C 9,4 C 90 % 998,6 hPa 0,2 l/m 0 min 2 min 30 W/m 12,9 km/h (3 Bft) 97,87 %
05.10.2020 09:14 11,1 C 9,4 C 9,4 C 91 % 998,6 hPa 0,0 l/m 0 min 2 min 35 W/m 25,7 km/h (4 Bft) 97,87 %
05.10.2020 09:16 11,1 C 9,4 C 9,4 C 91 % 998,6 hPa 0,0 l/m 0 min 2 min 40 W/m 16,1 km/h (3 Bft) 97,87 %
05.10.2020 09:18 11,1 C 9,4 C 9,4 C 91 % 998,6 hPa 0,0 l/m 0 min 2 min 41 W/m 22,5 km/h (4 Bft) 97,87 %
05.10.2020 09:20 11,1 C 9,4 C 9,4 C 91 % 998,6 hPa 0,0 l/m 0 min 2 min 42 W/m 16,1 km/h (3 Bft) 97,87 %
05.10.2020 09:22 11,1 C 9,4 C 9,4 C 91 % 998,7 hPa 0,0 l/m 0 min 2 min 44 W/m 19,3 km/h (3 Bft) 93,48 %
05.10.2020 09:24 11,1 C 9,4 C 9,4 C 91 % 998,7 hPa 0,0 l/m 0 min 2 min 47 W/m 12,9 km/h (3 Bft) 97,87 %
05.10.2020 09:26 11,1 C 9,4 C 9,4 C 91 % 998,7 hPa 0,0 l/m 0 min 2 min 47 W/m 16,1 km/h (3 Bft) 97,87 %
05.10.2020 09:28 11,1 C 9,4 C 9,4 C 91 % 998,7 hPa 0,0 l/m 0 min 2 min 40 W/m 16,1 km/h (3 Bft) 97,87 %
05.10.2020 09:30 11,1 C 9,4 C 9,4 C 91 % 998,7 hPa 0,0 l/m 0 min 2 min 47 W/m 12,9 km/h (3 Bft) 97,87 %
05.10.2020 09:32 11,1 C 9,4 C 9,4 C 91 % 998,7 hPa 0,0 l/m 0 min 2 min 59 W/m 22,5 km/h (4 Bft) 97,87 %
05.10.2020 09:34 11,1 C 9,4 C 9,4 C 91 % 998,7 hPa 0,0 l/m 0 min 2 min 63 W/m 22,5 km/h (4 Bft) 97,83 %
05.10.2020 09:36 11,1 C 9,4 C 9,4 C 91 % 998,7 hPa 0,0 l/m 0 min 2 min 57 W/m 16,1 km/h (3 Bft) 97,87 %
05.10.2020 09:38 11,1 C 9,4 C 9,4 C 91 % 998,7 hPa 0,0 l/m 0 min 2 min 54 W/m 19,3 km/h (3 Bft) 97,87 %
05.10.2020 09:40 11,1 C 10,0 C 9,4 C 91 % 998,7 hPa 0,0 l/m 0 min 2 min 51 W/m 19,3 km/h (3 Bft) 95,74 %
05.10.2020 09:42 11,1 C 10,0 C 9,4 C 91 % 998,7 hPa 0,0 l/m 0 min 2 min 57 W/m 25,7 km/h (4 Bft) 100,00 %
05.10.2020 09:44 11,1 C 9,4 C 9,4 C 92 % 998,7 hPa 0,0 l/m 0 min 2 min 55 W/m 16,1 km/h (3 Bft) 95,74 %
05.10.2020 09:46 11,1 C 10,0 C 9,4 C 92 % 998,8 hPa 0,0 l/m 0 min 2 min 49 W/m 19,3 km/h (3 Bft) 95,65 %
05.10.2020 09:48 11,1 C 10,0 C 9,4 C 92 % 998,8 hPa 0,0 l/m 0 min 2 min 53 W/m 16,1 km/h (3 Bft) 97,87 %
05.10.2020 09:50 11,1 C 10,0 C 9,4 C 92 % 998,8 hPa 0,0 l/m 0 min 2 min 61 W/m 16,1 km/h (3 Bft) 95,74 %
05.10.2020 09:52 11,1 C 10,0 C 9,4 C 92 % 998,8 hPa 0,0 l/m 0 min 2 min 60 W/m 19,3 km/h (3 Bft) 97,87 %
05.10.2020 09:54 11,1 C 9,4 C 9,4 C 92 % 998,7 hPa 0,0 l/m 0 min 2 min 54 W/m 16,1 km/h (3 Bft) 97,87 %
05.10.2020 09:56 11,1 C 9,4 C 9,4 C 92 % 998,8 hPa 0,0 l/m 0 min 2 min 50 W/m 16,1 km/h (3 Bft) 95,74 %
05.10.2020 09:58 11,1 C 9,4 C 9,4 C 92 % 998,8 hPa 0,0 l/m 0 min 2 min 41 W/m 19,3 km/h (3 Bft) 97,83 %
05.10.2020 10:00 11,1 C 9,4 C 9,4 C 92 % 998,8 hPa 0,0 l/m 0 min 2 min 40 W/m 19,3 km/h (3 Bft) 95,74 %
05.10.2020 10:02 11,1 C 9,4 C 9,4 C 92 % 998,8 hPa 0,0 l/m 0 min 2 min 36 W/m 16,1 km/h (3 Bft) 96,30 %
05.10.2020 10:04 11,1 C 9,4 C 9,4 C 92 % 998,8 hPa 0,0 l/m 0 min 2 min 38 W/m 16,1 km/h (3 Bft) 97,87 %
05.10.2020 10:06 11,1 C 9,4 C 9,4 C 92 % 998,8 hPa 0,2 l/m 0 min 2 min 33 W/m 12,9 km/h (3 Bft) 93,48 %
05.10.2020 10:08 11,1 C 9,4 C 9,4 C 92 % 998,8 hPa 0,0 l/m 0 min 2 min 33 W/m 19,3 km/h (3 Bft) 93,62 %
05.10.2020 10:10 11,1 C 9,4 C 9,4 C 92 % 998,8 hPa 0,0 l/m 0 min 2 min 42 W/m 19,3 km/h (3 Bft) 97,87 %
05.10.2020 10:12 11,1 C 9,4 C 9,4 C 92 % 998,8 hPa 0,0 l/m 0 min 2 min 45 W/m 16,1 km/h (3 Bft) 97,87 %
05.10.2020 10:14 11,1 C 9,4 C 9,4 C 92 % 998,8 hPa 0,2 l/m 0 min 2 min 46 W/m 25,7 km/h (4 Bft) 95,74 %
05.10.2020 10:16 11,1 C 9,4 C 9,4 C 92 % 998,8 hPa 0,0 l/m 0 min 2 min 46 W/m 22,5 km/h (4 Bft) 95,74 %
05.10.2020 10:18 11,1 C 8,9 C 9,4 C 92 % 998,8 hPa 0,0 l/m 0 min 2 min 46 W/m 22,5 km/h (4 Bft) 97,83 %
05.10.2020 10:20 11,1 C 9,4 C 9,4 C 92 % 998,9 hPa 0,0 l/m 0 min 2 min 47 W/m 16,1 km/h (3 Bft) 97,87 %
05.10.2020 10:22 11,1 C 9,4 C 9,4 C 92 % 998,9 hPa 0,0 l/m 0 min 2 min 51 W/m 16,1 km/h (3 Bft) 97,87 %
05.10.2020 10:24 11,1 C 9,4 C 9,4 C 92 % 998,9 hPa 0,0 l/m 0 min 2 min 55 W/m 19,3 km/h (3 Bft) 95,74 %
05.10.2020 10:26 11,1 C 9,4 C 9,4 C 92 % 999,0 hPa 0,0 l/m 0 min 2 min 58 W/m 12,9 km/h (3 Bft) 93,62 %
05.10.2020 10:28 11,1 C 8,9 C 9,4 C 92 % 998,9 hPa 0,2 l/m 0 min 2 min 58 W/m 29,0 km/h (5 Bft) 97,83 %
05.10.2020 10:30 11,1 C 9,4 C 9,4 C 92 % 999,0 hPa 0,0 l/m 0 min 2 min 51 W/m 19,3 km/h (3 Bft) 95,74 %
05.10.2020 10:32 11,1 C 9,4 C 8,9 C 92 % 999,0 hPa 0,0 l/m 0 min 2 min 52 W/m 16,1 km/h (3 Bft) 82,98 %
05.10.2020 10:34 11,1 C 9,4 C 9,4 C 92 % 999,0 hPa 0,0 l/m 0 min 2 min 57 W/m 16,1 km/h (3 Bft) 64,44 %
05.10.2020 10:36 11,0 C 9,4 C 9,4 C 92 % 999,0 hPa 0,0 l/m 0 min 2 min 66 W/m 19,3 km/h (3 Bft) 95,74 %
05.10.2020 10:38 11,0 C 9,4 C 9,4 C 92 % 999,0 hPa 0,0 l/m 0 min 2 min 72 W/m 16,1 km/h (3 Bft) 93,62 %
05.10.2020 10:40 11,0 C 9,4 C 9,4 C 92 % 998,9 hPa 0,0 l/m 0 min 2 min 68 W/m 19,3 km/h (3 Bft) 95,65 %
05.10.2020 10:42 11,0 C 9,4 C 9,4 C 92 % 998,9 hPa 0,0 l/m 0 min 2 min 76 W/m 19,3 km/h (3 Bft) 95,74 %
05.10.2020 10:44 11,0 C 9,4 C 9,4 C 93 % 999,0 hPa 0,0 l/m 0 min 2 min 73 W/m 22,5 km/h (4 Bft) 95,74 %
05.10.2020 10:46 11,0 C 9,4 C 9,4 C 93 % 999,0 hPa 0,0 l/m 0 min 2 min 77 W/m 25,7 km/h (4 Bft) 97,87 %
05.10.2020 10:48 11,1 C 9,4 C 9,4 C 93 % 999,0 hPa 0,2 l/m 0 min 0 min 79 W/m 19,3 km/h (3 Bft) 97,87 %
05.10.2020 10:50 11,0 C 9,4 C 9,4 C 93 % 999,0 hPa 0,0 l/m 0 min 0 min 88 W/m 22,5 km/h (4 Bft) 95,74 %
05.10.2020 10:52 11,0 C 9,4 C 9,4 C 93 % 999,0 hPa 0,0 l/m 0 min 0 min 88 W/m 22,5 km/h (4 Bft) 97,83 %
05.10.2020 10:54 11,0 C 9,4 C 9,4 C 93 % 999,0 hPa 0,0 l/m 0 min 2 min 80 W/m 22,5 km/h (4 Bft) 95,74 %
05.10.2020 10:56 11,1 C 9,4 C 9,4 C 93 % 999,1 hPa 0,0 l/m 0 min 2 min 79 W/m 12,9 km/h (3 Bft) 95,74 %
05.10.2020 10:58 11,1 C 9,4 C 9,4 C 93 % 999,1 hPa 0,0 l/m 0 min 0 min 75 W/m 16,1 km/h (3 Bft) 97,87 %
05.10.2020 11:00 11,1 C 9,4 C 9,4 C 93 % 999,1 hPa 0,0 l/m 0 min 0 min 66 W/m 22,5 km/h (4 Bft) 95,74 %
05.10.2020 11:02 11,1 C 9,4 C 9,4 C 93 % 999,1 hPa 0,0 l/m 0 min 2 min 67 W/m 12,9 km/h (3 Bft) 95,74 %
05.10.2020 11:04 11,1 C 9,4 C 9,4 C 93 % 999,0 hPa 0,0 l/m 0 min 0 min 72 W/m 16,1 km/h (3 Bft) 95,65 %
05.10.2020 11:06 11,0 C 9,4 C 9,4 C 93 % 999,1 hPa 0,0 l/m 0 min 0 min 75 W/m 19,3 km/h (3 Bft) 97,87 %
05.10.2020 11:08 11,1 C 9,4 C 9,4 C 93 % 999,1 hPa 0,0 l/m 0 min 0 min 71 W/m 12,9 km/h (3 Bft) 95,74 %
05.10.2020 11:10 11,0 C 9,4 C 9,4 C 93 % 999,1 hPa 0,0 l/m 0 min 0 min 76 W/m 19,3 km/h (3 Bft) 100,00 %
05.10.2020 11:12 11,0 C 9,4 C 9,4 C 93 % 999,1 hPa 0,0 l/m 0 min 0 min 76 W/m 19,3 km/h (3 Bft) 100,00 %
05.10.2020 11:14 11,0 C 9,4 C 9,4 C 93 % 999,1 hPa 0,0 l/m 0 min 0 min 76 W/m 19,3 km/h (3 Bft) 100,00 %
05.10.2020 11:16 11,0 C 9,4 C 9,4 C 93 % 999,1 hPa 0,0 l/m 0 min 0 min 77 W/m 25,7 km/h (4 Bft) 100,00 %
05.10.2020 11:18 11,0 C 9,4 C 9,4 C 93 % 999,1 hPa 0,0 l/m 0 min 0 min 77 W/m 22,5 km/h (4 Bft) 100,00 %
05.10.2020 11:20 10,9 C 9,4 C 9,4 C 93 % 999,2 hPa 0,0 l/m 0 min 0 min 76 W/m 22,5 km/h (4 Bft) 97,87 %
05.10.2020 11:22 11,0 C 9,4 C 9,4 C 93 % 999,2 hPa 0,0 l/m 0 min 0 min 77 W/m 19,3 km/h (3 Bft) 100,00 %
05.10.2020 11:24 11,0 C 9,4 C 9,4 C 93 % 999,2 hPa 0,0 l/m 0 min 0 min 80 W/m 19,3 km/h (3 Bft) 100,00 %
05.10.2020 11:26 11,0 C 9,4 C 9,4 C 93 % 999,2 hPa 0,0 l/m 0 min 0 min 78 W/m 16,1 km/h (3 Bft) 100,00 %
05.10.2020 11:28 11,0 C 9,4 C 9,4 C 93 % 999,2 hPa 0,0 l/m 0 min 0 min 77 W/m 19,3 km/h (3 Bft) 100,00 %
05.10.2020 11:30 11,0 C 10,0 C 9,4 C 93 % 999,2 hPa 0,0 l/m 0 min 0 min 78 W/m 12,9 km/h (3 Bft) 97,87 %
05.10.2020 11:32 11,0 C 10,0 C 9,4 C 93 % 999,2 hPa 0,0 l/m 0 min 0 min 84 W/m 16,1 km/h (3 Bft) 100,00 %
05.10.2020 11:34 11,0 C 10,0 C 9,4 C 93 % 999,2 hPa 0,0 l/m 0 min 0 min 89 W/m 19,3 km/h (3 Bft) 97,87 %
05.10.2020 11:36 11,1 C 10,0 C 9,4 C 94 % 999,2 hPa 0,0 l/m 0 min 0 min 97 W/m 16,1 km/h (3 Bft) 100,00 %
05.10.2020 11:38 11,1 C 10,0 C 9,4 C 94 % 999,2 hPa 0,0 l/m 0 min 0 min 100 W/m 12,9 km/h (3 Bft) 100,00 %
05.10.2020 11:40 11,1 C 10,0 C 10,0 C 94 % 999,3 hPa 0,0 l/m 0 min 0 min 109 W/m 12,9 km/h (3 Bft) 100,00 %
05.10.2020 11:42 11,1 C 10,0 C 10,0 C 94 % 999,2 hPa 0,0 l/m 0 min 0 min 118 W/m 19,3 km/h (3 Bft) 100,00 %
05.10.2020 11:44 11,1 C 10,0 C 10,0 C 94 % 999,3 hPa 0,0 l/m 0 min 0 min 114 W/m 16,1 km/h (3 Bft) 97,87 %
05.10.2020 11:46 11,1 C 10,0 C 10,0 C 94 % 999,3 hPa 0,0 l/m 0 min 0 min 110 W/m 16,1 km/h (3 Bft) 97,87 %
05.10.2020 11:48 11,1 C 10,0 C 10,0 C 94 % 999,3 hPa 0,0 l/m 0 min 0 min 110 W/m 12,9 km/h (3 Bft) 97,87 %
05.10.2020 11:50 11,1 C 10,0 C 10,0 C 94 % 999,3 hPa 0,0 l/m 0 min 0 min 110 W/m 16,1 km/h (3 Bft) 97,83 %
05.10.2020 11:52 11,2 C 10,0 C 10,0 C 94 % 999,3 hPa 0,0 l/m 0 min 0 min 100 W/m 25,7 km/h (4 Bft) 97,87 %
05.10.2020 11:54 11,2 C 10,0 C 10,0 C 94 % 999,4 hPa 0,0 l/m 0 min 0 min 88 W/m 19,3 km/h (3 Bft) 97,87 %
05.10.2020 11:56 11,2 C 10,0 C 10,0 C 94 % 999,3 hPa 0,0 l/m 0 min 0 min 83 W/m 16,1 km/h (3 Bft) 95,74 %
05.10.2020 11:58 11,1 C 10,0 C 10,0 C 94 % 999,3 hPa 0,0 l/m 0 min 0 min 86 W/m 16,1 km/h (3 Bft) 97,87 %
05.10.2020 12:00 11,2 C 10,0 C 10,0 C 94 % 999,4 hPa 0,0 l/m 0 min 0 min 79 W/m 19,3 km/h (3 Bft) 97,87 %
05.10.2020 12:02 11,2 C 10,0 C 10,0 C 94 % 999,4 hPa 0,0 l/m 0 min 0 min 76 W/m 16,1 km/h (3 Bft) 93,48 %
05.10.2020 12:04 11,2 C 10,0 C 10,0 C 94 % 999,4 hPa 0,0 l/m 0 min 0 min 74 W/m 9,7 km/h (2 Bft) 97,87 %
05.10.2020 12:08 11,2 C 10,0 C 10,0 C 94 % 999,4 hPa 0,0 l/m 0 min 0 min 72 W/m 16,1 km/h (3 Bft) 97,87 %
05.10.2020 12:10 11,2 C 10,0 C 10,0 C 94 % 999,5 hPa 0,0 l/m 0 min 0 min 74 W/m 19,3 km/h (3 Bft) 97,87 %
05.10.2020 12:12 11,2 C 10,0 C 10,0 C 94 % 999,5 hPa 0,0 l/m 0 min 0 min 76 W/m 12,9 km/h (3 Bft) 95,74 %
05.10.2020 12:14 11,2 C 10,0 C 10,0 C 94 % 999,5 hPa 0,0 l/m 0 min 0 min 72 W/m 16,1 km/h (3 Bft) 95,65 %
05.10.2020 12:16 11,2 C 10,0 C 10,0 C 94 % 999,5 hPa 0,0 l/m 0 min 0 min 70 W/m 25,7 km/h (4 Bft) 95,74 %
05.10.2020 12:18 11,2 C 10,0 C 10,0 C 94 % 999,5 hPa 0,0 l/m 0 min 0 min 79 W/m 19,3 km/h (3 Bft) 97,87 %
05.10.2020 12:20 11,2 C 10,6 C 10,0 C 94 % 999,5 hPa 0,0 l/m 0 min 0 min 90 W/m 16,1 km/h (3 Bft) 95,74 %
05.10.2020 12:22 11,2 C 10,6 C 10,0 C 94 % 999,5 hPa 0,0 l/m 0 min 0 min 107 W/m 16,1 km/h (3 Bft) 97,87 %
05.10.2020 12:24 11,2 C 10,6 C 10,0 C 94 % 999,5 hPa 0,0 l/m 0 min 0 min 114 W/m 22,5 km/h (4 Bft) 97,87 %
05.10.2020 12:26 11,2 C 10,6 C 10,0 C 94 % 999,5 hPa 0,0 l/m 0 min 0 min 102 W/m 19,3 km/h (3 Bft) 97,83 %
05.10.2020 12:28 11,2 C 10,6 C 10,0 C 94 % 999,5 hPa 0,0 l/m 0 min 0 min 91 W/m 16,1 km/h (3 Bft) 97,87 %
05.10.2020 12:30 11,2 C 10,6 C 10,0 C 94 % 999,5 hPa 0,0 l/m 0 min 0 min 82 W/m 19,3 km/h (3 Bft) 97,87 %
05.10.2020 12:32 11,2 C 10,6 C 10,0 C 94 % 999,5 hPa 0,0 l/m 0 min 0 min 77 W/m 16,1 km/h (3 Bft) 97,87 %
05.10.2020 12:34 11,2 C 10,6 C 10,0 C 94 % 999,5 hPa 0,0 l/m 0 min 0 min 74 W/m 16,1 km/h (3 Bft) 100,00 %
05.10.2020 12:36 11,2 C 10,6 C 10,0 C 94 % 999,5 hPa 0,0 l/m 0 min 0 min 66 W/m 16,1 km/h (3 Bft) 97,87 %
05.10.2020 12:38 11,2 C 10,6 C 10,0 C 94 % 999,5 hPa 0,0 l/m 0 min 0 min 61 W/m 19,3 km/h (3 Bft) 100,00 %
05.10.2020 12:40 11,3 C 10,6 C 10,0 C 94 % 999,4 hPa 0,0 l/m 0 min 0 min 58 W/m 25,7 km/h (4 Bft) 97,87 %
05.10.2020 12:42 11,3 C 10,6 C 10,0 C 94 % 999,5 hPa 0,0 l/m 0 min 0 min 58 W/m 6,4 km/h (2 Bft) 41,67 %
05.10.2020 12:44 11,3 C 10,6 C 10,0 C 94 % 999,5 hPa 0,0 l/m 0 min 0 min 56 W/m 12,9 km/h (3 Bft) 97,87 %
05.10.2020 12:46 11,3 C 10,6 C 10,0 C 94 % 999,5 hPa 0,0 l/m 0 min 0 min 58 W/m 12,9 km/h (3 Bft) 97,87 %
05.10.2020 12:48 11,3 C 10,6 C 10,0 C 94 % 999,5 hPa 0,0 l/m 0 min 0 min 59 W/m 12,9 km/h (3 Bft) 95,65 %
05.10.2020 12:50 11,3 C 10,6 C 10,0 C 94 % 999,5 hPa 0,0 l/m 0 min 0 min 66 W/m 12,9 km/h (3 Bft) 95,74 %
05.10.2020 12:52 11,3 C 10,6 C 10,0 C 94 % 999,5 hPa 0,0 l/m 0 min 0 min 70 W/m 6,4 km/h (2 Bft) 97,87 %
05.10.2020 12:54 11,4 C 10,6 C 10,0 C 94 % 999,5 hPa 0,0 l/m 0 min 2 min 69 W/m 12,9 km/h (3 Bft) 100,00 %
05.10.2020 12:56 11,4 C 10,6 C 10,0 C 94 % 999,5 hPa 0,0 l/m 0 min 2 min 68 W/m 12,9 km/h (3 Bft) 100,00 %
05.10.2020 12:58 11,4 C 10,6 C 10,0 C 94 % 999,5 hPa 0,0 l/m 0 min 0 min 65 W/m 19,3 km/h (3 Bft) 97,87 %
05.10.2020 13:00 11,4 C 10,6 C 10,0 C 94 % 999,5 hPa 0,0 l/m 0 min 0 min 66 W/m 6,4 km/h (2 Bft) 97,83 %
05.10.2020 13:02 11,4 C 10,6 C 10,0 C 94 % 999,6 hPa 0,0 l/m 0 min 0 min 62 W/m 9,7 km/h (2 Bft) 97,87 %
05.10.2020 13:04 11,4 C 10,6 C 10,0 C 94 % 999,6 hPa 0,0 l/m 0 min 0 min 59 W/m 12,9 km/h (3 Bft) 97,87 %
05.10.2020 13:06 11,4 C 10,0 C 10,0 C 94 % 999,6 hPa 0,0 l/m 0 min 0 min 61 W/m 16,1 km/h (3 Bft) 97,87 %
05.10.2020 13:08 11,4 C 10,0 C 10,0 C 93 % 999,6 hPa 0,0 l/m 0 min 2 min 64 W/m 12,9 km/h (3 Bft) 97,87 %
05.10.2020 13:10 11,5 C 10,0 C 10,0 C 93 % 999,5 hPa 0,0 l/m 0 min 2 min 61 W/m 6,4 km/h (2 Bft) 97,87 %
05.10.2020 13:12 11,5 C 10,0 C 10,0 C 93 % 999,6 hPa 0,0 l/m 0 min 2 min 56 W/m 12,9 km/h (3 Bft) 97,83 %
05.10.2020 13:14 11,5 C 10,0 C 10,0 C 93 % 999,6 hPa 0,0 l/m 0 min 2 min 54 W/m 12,9 km/h (3 Bft) 95,74 %
05.10.2020 13:16 11,5 C 10,0 C 10,0 C 93 % 999,5 hPa 0,0 l/m 0 min 2 min 61 W/m 16,1 km/h (3 Bft) 95,74 %
05.10.2020 13:18 11,6 C 10,0 C 10,0 C 93 % 999,5 hPa 0,2 l/m 0 min 2 min 69 W/m 6,4 km/h (2 Bft) 93,62 %
05.10.2020 13:20 11,6 C 10,0 C 10,0 C 93 % 999,5 hPa 0,0 l/m 0 min 0 min 68 W/m 12,9 km/h (3 Bft) 93,62 %
05.10.2020 13:22 11,6 C 10,0 C 10,0 C 94 % 999,6 hPa 0,0 l/m 0 min 0 min 60 W/m 12,9 km/h (3 Bft) 93,62 %
05.10.2020 13:24 11,6 C 10,0 C 10,0 C 94 % 999,6 hPa 0,0 l/m 0 min 0 min 53 W/m 12,9 km/h (3 Bft) 95,65 %
05.10.2020 13:26 11,6 C 10,0 C 10,0 C 94 % 999,6 hPa 0,0 l/m 0 min 0 min 53 W/m 16,1 km/h (3 Bft) 95,74 %
05.10.2020 13:28 11,6 C 10,0 C 10,0 C 94 % 999,6 hPa 0,0 l/m 0 min 0 min 48 W/m 12,9 km/h (3 Bft) 95,74 %
05.10.2020 13:30 11,6 C 10,0 C 10,0 C 93 % 999,6 hPa 0,0 l/m 0 min 0 min 47 W/m 16,1 km/h (3 Bft) 95,74 %
05.10.2020 13:32 11,6 C 10,6 C 10,0 C 93 % 999,6 hPa 0,0 l/m 0 min 0 min 46 W/m 6,4 km/h (2 Bft) 95,74 %
05.10.2020 13:34 11,6 C 10,6 C 10,0 C 93 % 999,6 hPa 0,0 l/m 0 min 0 min 53 W/m 6,4 km/h (2 Bft) 93,62 %
05.10.2020 13:36 11,6 C 10,6 C 10,0 C 94 % 999,7 hPa 0,0 l/m 0 min 0 min 56 W/m 3,2 km/h (1 Bft) 95,65 %
05.10.2020 13:38 11,6 C 10,6 C 10,0 C 94 % 999,7 hPa 0,0 l/m 0 min 0 min 57 W/m 12,9 km/h (3 Bft) 95,74 %
05.10.2020 13:40 11,6 C 10,6 C 10,0 C 94 % 999,7 hPa 0,0 l/m 0 min 0 min 63 W/m 3,2 km/h (1 Bft) 95,74 %
05.10.2020 13:42 11,6 C 10,6 C 10,0 C 94 % 999,7 hPa 0,0 l/m 0 min 0 min 64 W/m 3,2 km/h (1 Bft) 95,74 %
05.10.2020 13:44 11,6 C 10,6 C 10,0 C 94 % 999,7 hPa 0,0 l/m 0 min 0 min 66 W/m 16,1 km/h (3 Bft) 95,74 %
05.10.2020 13:46 11,6 C 10,6 C 10,0 C 94 % 999,7 hPa 0,0 l/m 0 min 0 min 71 W/m 6,4 km/h (2 Bft) 97,83 %
05.10.2020 13:48 11,6 C 10,6 C 10,0 C 94 % 999,7 hPa 0,0 l/m 0 min 0 min 58 W/m 6,4 km/h (2 Bft) 95,74 %
05.10.2020 13:50 11,6 C 10,6 C 10,0 C 94 % 999,8 hPa 0,0 l/m 0 min 0 min 51 W/m 6,4 km/h (2 Bft) 97,87 %
05.10.2020 13:52 11,6 C 10,6 C 10,0 C 94 % 999,7 hPa 0,0 l/m 0 min 0 min 65 W/m 6,4 km/h (2 Bft) 97,87 %
05.10.2020 13:54 11,6 C 10,6 C 10,0 C 94 % 999,7 hPa 0,0 l/m 0 min 0 min 67 W/m 9,7 km/h (2 Bft) 97,87 %
05.10.2020 13:56 11,6 C 10,6 C 10,0 C 94 % 999,7 hPa 0,0 l/m 0 min 0 min 74 W/m 12,9 km/h (3 Bft) 97,87 %
05.10.2020 13:58 11,7 C 11,1 C 10,0 C 94 % 999,7 hPa 0,0 l/m 0 min 0 min 86 W/m 6,4 km/h (2 Bft) 95,65 %
05.10.2020 14:00 11,7 C 11,1 C 10,0 C 94 % 999,8 hPa 0,0 l/m 0 min 0 min 84 W/m 6,4 km/h (2 Bft) 97,87 %
05.10.2020 14:02 11,7 C 11,1 C 10,6 C 94 % 999,8 hPa 0,0 l/m 0 min 0 min 82 W/m 3,2 km/h (1 Bft) 97,87 %
05.10.2020 14:04 11,7 C 11,1 C 10,6 C 94 % 999,7 hPa 0,0 l/m 0 min 0 min 117 W/m 6,4 km/h (2 Bft) 95,74 %
05.10.2020 14:06 11,7 C 11,7 C 10,6 C 94 % 999,7 hPa 0,0 l/m 0 min 0 min 145 W/m 6,4 km/h (2 Bft) 97,87 %
05.10.2020 14:08 11,8 C 11,7 C 10,6 C 94 % 999,7 hPa 0,0 l/m 0 min 0 min 172 W/m 3,2 km/h (1 Bft) 97,87 %
05.10.2020 14:10 11,8 C 12,2 C 10,6 C 94 % 999,7 hPa 0,0 l/m 0 min 0 min 157 W/m 16,1 km/h (3 Bft) 93,48 %
05.10.2020 14:12 11,8 C 12,2 C 11,1 C 94 % 999,7 hPa 0,0 l/m 0 min 0 min 135 W/m 12,9 km/h (3 Bft) 97,87 %
05.10.2020 14:14 11,9 C 11,7 C 11,1 C 94 % 999,7 hPa 0,0 l/m 0 min 0 min 108 W/m 12,9 km/h (3 Bft) 97,87 %
05.10.2020 14:16 11,9 C 11,7 C 11,1 C 94 % 999,7 hPa 0,0 l/m 0 min 0 min 93 W/m 12,9 km/h (3 Bft) 95,74 %
05.10.2020 14:18 12,0 C 11,7 C 11,1 C 94 % 999,7 hPa 0,0 l/m 0 min 0 min 96 W/m 16,1 km/h (3 Bft) 97,87 %
05.10.2020 14:20 12,0 C 11,7 C 11,1 C 94 % 999,7 hPa 0,0 l/m 0 min 0 min 96 W/m 16,1 km/h (3 Bft) 97,87 %
05.10.2020 14:22 12,0 C 12,2 C 11,1 C 94 % 999,7 hPa 0,0 l/m 0 min 0 min 81 W/m 6,4 km/h (2 Bft) 97,83 %
05.10.2020 14:24 12,1 C 12,2 C 11,1 C 94 % 999,7 hPa 0,0 l/m 0 min 0 min 73 W/m 9,7 km/h (2 Bft) 100,00 %
05.10.2020 14:26 12,1 C 11,7 C 11,1 C 94 % 999,8 hPa 0,0 l/m 0 min 0 min 78 W/m 12,9 km/h (3 Bft) 93,62 %
05.10.2020 14:28 12,1 C 11,7 C 11,1 C 94 % 999,8 hPa 0,0 l/m 0 min 0 min 69 W/m 16,1 km/h (3 Bft) 100,00 %
05.10.2020 14:30 12,2 C 11,7 C 11,1 C 94 % 999,8 hPa 0,0 l/m 0 min 0 min 47 W/m 16,1 km/h (3 Bft) 100,00 %
05.10.2020 14:32 12,2 C 11,7 C 11,1 C 94 % 999,8 hPa 0,0 l/m 0 min 0 min 35 W/m 12,9 km/h (3 Bft) 100,00 %
05.10.2020 14:34 12,2 C 11,7 C 10,6 C 93 % 999,8 hPa 0,0 l/m 0 min 0 min 31 W/m 12,9 km/h (3 Bft) 97,83 %
05.10.2020 14:36 12,3 C 11,7 C 10,6 C 93 % 999,8 hPa 0,0 l/m 0 min 0 min 37 W/m 9,7 km/h (2 Bft) 97,87 %
05.10.2020 14:38 12,3 C 11,7 C 10,6 C 93 % 999,8 hPa 0,0 l/m 0 min 0 min 34 W/m 16,1 km/h (3 Bft) 95,74 %
05.10.2020 14:40 12,3 C 11,7 C 10,6 C 93 % 999,8 hPa 0,0 l/m 0 min 0 min 44 W/m 19,3 km/h (3 Bft) 97,87 %
05.10.2020 14:42 12,3 C 11,7 C 10,6 C 93 % 999,8 hPa 0,0 l/m 0 min 0 min 58 W/m 16,1 km/h (3 Bft) 97,87 %
05.10.2020 14:44 12,4 C 11,7 C 10,6 C 92 % 999,8 hPa 0,0 l/m 0 min 0 min 71 W/m 12,9 km/h (3 Bft) 97,87 %
05.10.2020 14:46 12,4 C 11,7 C 11,1 C 92 % 999,9 hPa 0,0 l/m 0 min 0 min 73 W/m 6,4 km/h (2 Bft) 97,83 %
05.10.2020 14:48 12,4 C 11,7 C 11,1 C 92 % 999,8 hPa 0,0 l/m 0 min 0 min 55 W/m 12,9 km/h (3 Bft) 95,74 %
05.10.2020 14:50 12,4 C 11,7 C 11,1 C 92 % 999,9 hPa 0,0 l/m 0 min 0 min 46 W/m 12,9 km/h (3 Bft) 97,87 %
05.10.2020 14:52 12,5 C 11,7 C 11,1 C 92 % 999,8 hPa 0,0 l/m 0 min 0 min 44 W/m 12,9 km/h (3 Bft) 97,87 %
05.10.2020 14:54 12,6 C 11,7 C 11,1 C 91 % 999,8 hPa 0,0 l/m 0 min 0 min 45 W/m 9,7 km/h (2 Bft) 97,87 %
05.10.2020 14:56 12,6 C 11,7 C 11,1 C 91 % 999,8 hPa 0,0 l/m 0 min 0 min 42 W/m 9,7 km/h (2 Bft) 97,87 %
05.10.2020 14:58 12,6 C 11,7 C 11,1 C 91 % 999,8 hPa 0,0 l/m 0 min 0 min 47 W/m 6,4 km/h (2 Bft) 95,65 %
05.10.2020 15:00 12,6 C 11,7 C 11,1 C 91 % 999,9 hPa 0,0 l/m 0 min 2 min 72 W/m 6,4 km/h (2 Bft) 95,74 %
05.10.2020 15:02 12,7 C 11,7 C 11,1 C 91 % 999,8 hPa 0,0 l/m 0 min 2 min 65 W/m 16,1 km/h (3 Bft) 97,87 %
05.10.2020 15:04 12,7 C 11,7 C 11,1 C 91 % 999,9 hPa 0,0 l/m 0 min 0 min 41 W/m 12,9 km/h (3 Bft) 97,87 %
05.10.2020 15:06 12,7 C 11,7 C 11,1 C 90 % 999,9 hPa 0,0 l/m 0 min 2 min 42 W/m 12,9 km/h (3 Bft) 95,74 %
05.10.2020 15:08 12,7 C 10,6 C 10,6 C 90 % 999,9 hPa 0,0 l/m 0 min 2 min 34 W/m 12,9 km/h (3 Bft) 97,83 %
05.10.2020 15:10 12,8 C 10,6 C 10,6 C 90 % 999,9 hPa 0,2 l/m 0 min 2 min 28 W/m 6,4 km/h (2 Bft) 45,95 %
05.10.2020 15:12 12,8 C 10,6 C 10,6 C 90 % 999,9 hPa 0,0 l/m 0 min 2 min 30 W/m 16,1 km/h (3 Bft) 97,87 %
05.10.2020 15:14 12,8 C 10,6 C 10,6 C 90 % 1000,0 hPa 0,0 l/m 0 min 0 min 31 W/m 6,4 km/h (2 Bft) 97,87 %
05.10.2020 15:16 12,8 C 10,6 C 10,6 C 90 % 1000,0 hPa 0,0 l/m 0 min 0 min 33 W/m 19,3 km/h (3 Bft) 95,74 %
05.10.2020 15:18 12,8 C 11,1 C 10,6 C 90 % 1000,0 hPa 0,0 l/m 0 min 0 min 38 W/m 6,4 km/h (2 Bft) 95,74 %
05.10.2020 15:20 12,8 C 11,1 C 10,6 C 90 % 1000,0 hPa 0,0 l/m 0 min 0 min 36 W/m 3,2 km/h (1 Bft) 97,83 %
05.10.2020 15:22 12,8 C 11,1 C 10,6 C 90 % 1000,0 hPa 0,0 l/m 0 min 0 min 52 W/m 12,9 km/h (3 Bft) 97,87 %
05.10.2020 15:24 12,8 C 11,7 C 10,6 C 90 % 1000,0 hPa 0,0 l/m 0 min 0 min 76 W/m 16,1 km/h (3 Bft) 100,00 %
05.10.2020 15:26 12,8 C 11,7 C 10,6 C 90 % 999,9 hPa 0,0 l/m 0 min 0 min 112 W/m 6,4 km/h (2 Bft) 97,87 %
05.10.2020 15:28 12,8 C 12,2 C 10,6 C 90 % 999,9 hPa 0,0 l/m 0 min 0 min 180 W/m 6,4 km/h (2 Bft) 97,87 %
05.10.2020 15:30 12,8 C 12,8 C 11,1 C 91 % 999,9 hPa 0,0 l/m 0 min 0 min 224 W/m 6,4 km/h (2 Bft) 97,87 %
05.10.2020 15:32 12,9 C 12,8 C 11,1 C 91 % 999,9 hPa 0,0 l/m 2 min 0 min 240 W/m 6,4 km/h (2 Bft) 97,83 %
05.10.2020 15:34 12,9 C 13,3 C 11,7 C 91 % 999,9 hPa 0,0 l/m 2 min 0 min 232 W/m 6,4 km/h (2 Bft) 97,87 %
05.10.2020 15:36 12,9 C 13,3 C 11,7 C 91 % 999,9 hPa 0,0 l/m 0 min 0 min 223 W/m 9,7 km/h (2 Bft) 95,74 %
05.10.2020 15:38 13,0 C 13,3 C 11,7 C 92 % 999,9 hPa 0,0 l/m 0 min 0 min 211 W/m 6,4 km/h (2 Bft) 100,00 %
05.10.2020 15:40 13,0 C 13,3 C 11,7 C 92 % 999,9 hPa 0,0 l/m 0 min 0 min 150 W/m 3,2 km/h (1 Bft) 97,87 %
05.10.2020 15:42 13,1 C 12,8 C 11,7 C 92 % 999,9 hPa 0,0 l/m 0 min 0 min 109 W/m 9,7 km/h (2 Bft) 97,87 %
05.10.2020 15:44 13,1 C 12,8 C 11,7 C 92 % 999,9 hPa 0,0 l/m 0 min 0 min 82 W/m 9,7 km/h (2 Bft) 97,83 %
05.10.2020 15:46 13,1 C 12,2 C 11,7 C 92 % 999,9 hPa 0,0 l/m 0 min 0 min 67 W/m 9,7 km/h (2 Bft) 93,62 %
05.10.2020 15:48 13,2 C 12,2 C 11,7 C 92 % 999,9 hPa 0,0 l/m 0 min 0 min 71 W/m 19,3 km/h (3 Bft) 97,87 %
05.10.2020 15:50 13,2 C 12,2 C 11,7 C 92 % 1000,0 hPa 0,0 l/m 0 min 0 min 96 W/m 12,9 km/h (3 Bft) 97,87 %
05.10.2020 15:52 13,2 C 12,2 C 11,7 C 92 % 1000,0 hPa 0,0 l/m 0 min 0 min 120 W/m 19,3 km/h (3 Bft) 97,87 %
05.10.2020 15:54 13,2 C 12,8 C 11,7 C 92 % 1000,0 hPa 0,0 l/m 0 min 0 min 109 W/m 12,9 km/h (3 Bft) 97,83 %
05.10.2020 15:56 13,2 C 12,8 C 11,7 C 92 % 999,9 hPa 0,0 l/m 0 min 0 min 125 W/m 12,9 km/h (3 Bft) 97,87 %
05.10.2020 15:58 13,2 C 13,3 C 11,7 C 91 % 1000,0 hPa 0,0 l/m 0 min 0 min 203 W/m 19,3 km/h (3 Bft) 97,87 %
05.10.2020 16:00 13,3 C 13,9 C 11,7 C 91 % 1000,0 hPa 0,0 l/m 2 min 0 min 259 W/m 16,1 km/h (3 Bft) 95,74 %
05.10.2020 16:02 13,3 C 13,9 C 12,2 C 91 % 1000,0 hPa 0,0 l/m 2 min 0 min 290 W/m 25,7 km/h (4 Bft) 97,87 %
05.10.2020 16:04 13,4 C 13,9 C 12,2 C 91 % 1000,0 hPa 0,0 l/m 2 min 0 min 216 W/m 19,3 km/h (3 Bft) 91,49 %
05.10.2020 16:06 13,4 C 13,9 C 12,2 C 91 % 1000,0 hPa 0,0 l/m 0 min 0 min 163 W/m 19,3 km/h (3 Bft) 95,65 %
05.10.2020 16:08 13,5 C 13,3 C 12,2 C 90 % 1000,1 hPa 0,0 l/m 0 min 0 min 136 W/m 12,9 km/h (3 Bft) 97,87 %
05.10.2020 16:10 13,5 C 13,3 C 11,7 C 90 % 1000,0 hPa 0,0 l/m 0 min 0 min 149 W/m 19,3 km/h (3 Bft) 95,74 %
05.10.2020 16:12 13,6 C 13,3 C 12,2 C 90 % 1000,1 hPa 0,0 l/m 0 min 0 min 148 W/m 29,0 km/h (5 Bft) 95,74 %
05.10.2020 16:14 13,6 C 12,8 C 12,2 C 89 % 1000,1 hPa 0,0 l/m 0 min 0 min 124 W/m 22,5 km/h (4 Bft) 97,87 %
05.10.2020 16:16 13,7 C 12,8 C 11,7 C 89 % 1000,1 hPa 0,0 l/m 0 min 0 min 96 W/m 22,5 km/h (4 Bft) 95,74 %
05.10.2020 16:18 13,7 C 12,8 C 11,7 C 89 % 1000,0 hPa 0,0 l/m 0 min 0 min 92 W/m 16,1 km/h (3 Bft) 97,83 %
05.10.2020 16:20 13,7 C 12,8 C 11,7 C 88 % 1000,1 hPa 0,0 l/m 0 min 0 min 99 W/m 25,7 km/h (4 Bft) 97,87 %
05.10.2020 16:22 13,7 C 12,8 C 12,2 C 88 % 1000,1 hPa 0,0 l/m 0 min 0 min 121 W/m 22,5 km/h (4 Bft) 95,74 %
05.10.2020 16:24 13,8 C 12,8 C 12,2 C 87 % 1000,2 hPa 0,0 l/m 0 min 0 min 145 W/m 19,3 km/h (3 Bft) 97,87 %
05.10.2020 16:26 13,8 C 12,8 C 12,2 C 87 % 1000,1 hPa 0,0 l/m 0 min 0 min 124 W/m 22,5 km/h (4 Bft) 95,74 %
05.10.2020 16:28 13,8 C 12,8 C 12,2 C 87 % 1000,2 hPa 0,0 l/m 0 min 0 min 108 W/m 22,5 km/h (4 Bft) 93,62 %
05.10.2020 16:30 13,9 C 13,3 C 12,2 C 87 % 1000,1 hPa 0,0 l/m 0 min 0 min 143 W/m 16,1 km/h (3 Bft) 95,65 %
05.10.2020 16:32 13,9 C 13,3 C 12,2 C 87 % 1000,2 hPa 0,0 l/m 0 min 0 min 111 W/m 12,9 km/h (3 Bft) 95,74 %
05.10.2020 16:34 13,9 C 12,8 C 12,2 C 87 % 1000,2 hPa 0,0 l/m 0 min 0 min 110 W/m 29,0 km/h (5 Bft) 91,49 %
05.10.2020 16:36 13,9 C 13,3 C 12,2 C 86 % 1000,2 hPa 0,0 l/m 0 min 0 min 138 W/m 22,5 km/h (4 Bft) 89,36 %
05.10.2020 16:38 14,0 C 13,3 C 12,2 C 86 % 1000,2 hPa 0,0 l/m 0 min 0 min 158 W/m 16,1 km/h (3 Bft) 91,49 %
05.10.2020 16:40 14,0 C 13,3 C 12,2 C 86 % 1000,2 hPa 0,0 l/m 0 min 0 min 125 W/m 16,1 km/h (3 Bft) 95,74 %
05.10.2020 16:42 14,1 C 13,3 C 12,2 C 86 % 1000,2 hPa 0,0 l/m 0 min 0 min 85 W/m 16,1 km/h (3 Bft) 97,83 %
05.10.2020 16:44 14,1 C 12,8 C 12,2 C 86 % 1000,2 hPa 0,0 l/m 0 min 0 min 65 W/m 16,1 km/h (3 Bft) 89,36 %
05.10.2020 16:46 14,1 C 12,8 C 12,2 C 86 % 1000,2 hPa 0,0 l/m 0 min 0 min 52 W/m 12,9 km/h (3 Bft) 82,98 %
05.10.2020 16:48 14,1 C 12,8 C 11,7 C 86 % 1000,3 hPa 0,0 l/m 0 min 0 min 34 W/m 16,1 km/h (3 Bft) 93,62 %
05.10.2020 16:50 14,1 C 12,8 C 11,7 C 86 % 1000,3 hPa 0,0 l/m 0 min 0 min 24 W/m 12,9 km/h (3 Bft) 93,62 %
05.10.2020 16:52 14,1 C 12,8 C 11,7 C 86 % 1000,3 hPa 0,0 l/m 0 min 0 min 22 W/m 22,5 km/h (4 Bft) 95,65 %
05.10.2020 16:54 14,1 C 12,8 C 11,7 C 85 % 1000,3 hPa 0,0 l/m 0 min 0 min 30 W/m 19,3 km/h (3 Bft) 85,11 %
05.10.2020 16:56 14,1 C 12,8 C 11,7 C 85 % 1000,3 hPa 0,0 l/m 0 min 0 min 64 W/m 12,9 km/h (3 Bft) 95,74 %
05.10.2020 16:58 14,1 C 12,8 C 11,7 C 85 % 1000,4 hPa 0,0 l/m 0 min 0 min 89 W/m 19,3 km/h (3 Bft) 95,74 %
05.10.2020 17:00 14,1 C 12,8 C 12,2 C 85 % 1000,4 hPa 0,0 l/m 0 min 0 min 106 W/m 19,3 km/h (3 Bft) 95,74 %
05.10.2020 17:02 14,1 C 13,3 C 12,2 C 85 % 1000,4 hPa 0,0 l/m 0 min 0 min 111 W/m 12,9 km/h (3 Bft) 97,87 %
05.10.2020 17:04 14,1 C 13,3 C 12,2 C 85 % 1000,4 hPa 0,0 l/m 0 min 0 min 91 W/m 19,3 km/h (3 Bft) 97,62 %
05.10.2020 17:06 14,1 C 13,3 C 12,2 C 85 % 1000,4 hPa 0,0 l/m 0 min 0 min 80 W/m 29,0 km/h (5 Bft) 95,65 %
05.10.2020 17:08 14,2 C 13,9 C 12,2 C 85 % 1000,4 hPa 0,0 l/m 0 min 0 min 76 W/m 25,7 km/h (4 Bft) 97,87 %
05.10.2020 17:10 14,2 C 13,9 C 12,2 C 84 % 1000,4 hPa 0,0 l/m 0 min 0 min 87 W/m 25,7 km/h (4 Bft) 97,87 %
05.10.2020 17:12 14,2 C 13,9 C 12,2 C 84 % 1000,5 hPa 0,0 l/m 0 min 0 min 99 W/m 16,1 km/h (3 Bft) 97,87 %
05.10.2020 17:14 14,2 C 13,9 C 12,2 C 84 % 1000,5 hPa 0,0 l/m 0 min 0 min 105 W/m 19,3 km/h (3 Bft) 100,00 %
05.10.2020 17:16 14,2 C 13,9 C 12,2 C 84 % 1000,5 hPa 0,0 l/m 0 min 0 min 119 W/m 22,5 km/h (4 Bft) 97,87 %
05.10.2020 17:18 14,3 C 14,4 C 12,2 C 83 % 1000,4 hPa 0,0 l/m 2 min 0 min 125 W/m 35,4 km/h (5 Bft) 100,00 %
05.10.2020 17:20 14,3 C 14,4 C 12,2 C 83 % 1000,5 hPa 0,0 l/m 0 min 0 min 118 W/m 19,3 km/h (3 Bft) 95,65 %
05.10.2020 17:22 14,3 C 14,4 C 12,2 C 83 % 1000,5 hPa 0,0 l/m 0 min 0 min 101 W/m 16,1 km/h (3 Bft) 95,74 %
05.10.2020 17:24 14,3 C 14,4 C 12,2 C 83 % 1000,5 hPa 0,0 l/m 0 min 0 min 98 W/m 16,1 km/h (3 Bft) 95,74 %
05.10.2020 17:26 14,3 C 13,9 C 12,2 C 83 % 1000,5 hPa 0,0 l/m 0 min 0 min 98 W/m 22,5 km/h (4 Bft) 95,74 %
05.10.2020 17:28 14,3 C 13,9 C 12,2 C 83 % 1000,5 hPa 0,0 l/m 0 min 0 min 105 W/m 22,5 km/h (4 Bft) 97,87 %
05.10.2020 17:30 14,3 C 14,4 C 12,2 C 83 % 1000,5 hPa 0,0 l/m 2 min 0 min 118 W/m 12,9 km/h (3 Bft) 95,74 %
05.10.2020 17:32 14,3 C 14,4 C 12,2 C 83 % 1000,6 hPa 0,0 l/m 2 min 0 min 115 W/m 25,7 km/h (4 Bft) 97,83 %
05.10.2020 17:34 14,3 C 14,4 C 12,2 C 83 % 1000,6 hPa 0,0 l/m 2 min 0 min 111 W/m 22,5 km/h (4 Bft) 95,74 %
05.10.2020 17:36 14,3 C 14,4 C 12,2 C 83 % 1000,6 hPa 0,0 l/m 2 min 0 min 131 W/m 32,2 km/h (5 Bft) 97,87 %
05.10.2020 17:38 14,3 C 14,4 C 12,2 C 82 % 1000,5 hPa 0,0 l/m 2 min 0 min 127 W/m 25,7 km/h (4 Bft) 97,87 %
05.10.2020 17:40 14,3 C 14,4 C 12,2 C 82 % 1000,6 hPa 0,0 l/m 2 min 0 min 111 W/m 25,7 km/h (4 Bft) 97,87 %
05.10.2020 17:42 14,3 C 14,4 C 12,2 C 82 % 1000,5 hPa 0,0 l/m 2 min 0 min 110 W/m 19,3 km/h (3 Bft) 97,83 %
05.10.2020 17:44 14,3 C 14,4 C 12,2 C 82 % 1000,6 hPa 0,0 l/m 2 min 0 min 96 W/m 25,7 km/h (4 Bft) 95,74 %
05.10.2020 17:46 14,3 C 13,9 C 12,2 C 82 % 1000,6 hPa 0,0 l/m 0 min 0 min 83 W/m 19,3 km/h (3 Bft) 95,74 %
05.10.2020 17:48 14,3 C 13,9 C 12,2 C 82 % 1000,7 hPa 0,0 l/m 0 min 0 min 80 W/m 19,3 km/h (3 Bft) 97,87 %
05.10.2020 17:50 14,3 C 13,9 C 12,2 C 82 % 1000,7 hPa 0,0 l/m 0 min 0 min 75 W/m 25,7 km/h (4 Bft) 97,87 %
05.10.2020 17:52 14,3 C 13,9 C 12,2 C 82 % 1000,7 hPa 0,0 l/m 0 min 0 min 69 W/m 25,7 km/h (4 Bft) 95,74 %
05.10.2020 17:54 14,3 C 13,9 C 12,2 C 82 % 1000,7 hPa 0,0 l/m 0 min 0 min 62 W/m 25,7 km/h (4 Bft) 97,83 %
05.10.2020 17:56 14,3 C 13,9 C 12,2 C 82 % 1000,7 hPa 0,0 l/m 0 min 0 min 60 W/m 25,7 km/h (4 Bft) 97,87 %
05.10.2020 17:58 14,3 C 13,3 C 11,7 C 82 % 1000,8 hPa 0,0 l/m 0 min 0 min 57 W/m 22,5 km/h (4 Bft) 97,87 %
05.10.2020 18:00 14,3 C 13,3 C 11,7 C 82 % 1000,8 hPa 0,0 l/m 0 min 0 min 58 W/m 22,5 km/h (4 Bft) 95,74 %
05.10.2020 18:02 14,3 C 13,3 C 11,7 C 82 % 1000,8 hPa 0,0 l/m 0 min 0 min 53 W/m 25,7 km/h (4 Bft) 95,74 %
05.10.2020 18:04 14,3 C 13,3 C 11,7 C 82 % 1000,8 hPa 0,0 l/m 0 min 0 min 49 W/m 25,7 km/h (4 Bft) 100,00 %
05.10.2020 18:08 14,3 C 13,3 C 11,7 C 83 % 1000,9 hPa 0,0 l/m 0 min 0 min 49 W/m 22,5 km/h (4 Bft) 96,77 %
05.10.2020 18:10 14,3 C 13,3 C 11,7 C 83 % 1000,9 hPa 0,0 l/m 0 min 0 min 53 W/m 22,5 km/h (4 Bft) 100,00 %
05.10.2020 18:12 14,2 C 13,3 C 11,7 C 83 % 1000,9 hPa 0,0 l/m 0 min 0 min 52 W/m 16,1 km/h (3 Bft) 97,87 %
05.10.2020 18:14 14,2 C 13,3 C 11,7 C 83 % 1000,9 hPa 0,0 l/m 0 min 0 min 46 W/m 16,1 km/h (3 Bft) 97,87 %
05.10.2020 18:16 14,1 C 13,3 C 11,7 C 83 % 1000,9 hPa 0,0 l/m 0 min 0 min 38 W/m 16,1 km/h (3 Bft) 95,65 %
05.10.2020 18:18 14,1 C 12,8 C 11,7 C 83 % 1001,0 hPa 0,0 l/m 0 min 0 min 31 W/m 19,3 km/h (3 Bft) 97,87 %
05.10.2020 18:20 14,1 C 12,8 C 11,7 C 83 % 1000,9 hPa 0,0 l/m 0 min 0 min 27 W/m 12,9 km/h (3 Bft) 100,00 %
05.10.2020 18:22 14,0 C 12,8 C 11,7 C 84 % 1001,1 hPa 0,0 l/m 0 min 0 min 23 W/m 19,3 km/h (3 Bft) 97,87 %
05.10.2020 18:24 14,0 C 12,8 C 11,7 C 84 % 1001,0 hPa 0,0 l/m 0 min 0 min 30 W/m 9,7 km/h (2 Bft) 95,74 %
05.10.2020 18:26 13,9 C 12,8 C 11,7 C 84 % 1001,0 hPa 0,0 l/m 0 min 0 min 33 W/m 6,4 km/h (2 Bft) 100,00 %
05.10.2020 18:28 13,9 C 12,8 C 11,7 C 84 % 1001,1 hPa 0,0 l/m 2 min 0 min 39 W/m 25,7 km/h (4 Bft) 100,00 %
05.10.2020 18:30 13,9 C 13,3 C 11,7 C 84 % 1001,0 hPa 0,0 l/m 2 min 0 min 47 W/m 19,3 km/h (3 Bft) 97,87 %
05.10.2020 18:32 13,9 C 13,3 C 11,7 C 84 % 1001,0 hPa 0,0 l/m 2 min 0 min 59 W/m 22,5 km/h (4 Bft) 97,87 %
05.10.2020 18:34 13,9 C 13,3 C 11,7 C 84 % 1001,0 hPa 0,0 l/m 2 min 0 min 54 W/m 16,1 km/h (3 Bft) 53,33 %
05.10.2020 18:36 13,9 C 13,3 C 11,7 C 84 % 1001,0 hPa 0,0 l/m 2 min 0 min 39 W/m 9,7 km/h (2 Bft) 97,87 %
05.10.2020 18:38 13,9 C 13,3 C 11,7 C 85 % 1001,0 hPa 0,0 l/m 2 min 0 min 29 W/m 16,1 km/h (3 Bft) 97,87 %
05.10.2020 18:40 13,9 C 12,8 C 11,7 C 85 % 1001,0 hPa 0,0 l/m 0 min 0 min 20 W/m 16,1 km/h (3 Bft) 97,83 %
05.10.2020 18:42 13,9 C 12,8 C 11,7 C 85 % 1001,0 hPa 0,0 l/m 0 min 0 min 15 W/m 16,1 km/h (3 Bft) 97,87 %
05.10.2020 18:44 13,8 C 12,8 C 11,7 C 85 % 1001,0 hPa 0,0 l/m 0 min 0 min 14 W/m 9,7 km/h (2 Bft) 97,87 %
05.10.2020 18:46 13,8 C 12,8 C 11,7 C 85 % 1001,0 hPa 0,0 l/m 0 min 0 min 12 W/m 12,9 km/h (3 Bft) 97,87 %
05.10.2020 18:48 13,8 C 12,8 C 11,7 C 84 % 1001,0 hPa 0,0 l/m 0 min 0 min 10 W/m 9,7 km/h (2 Bft) 97,87 %
05.10.2020 18:50 13,8 C 12,8 C 11,7 C 85 % 1001,1 hPa 0,0 l/m 0 min 0 min 8 W/m 16,1 km/h (3 Bft) 97,87 %
05.10.2020 18:52 13,8 C 12,8 C 11,1 C 85 % 1001,0 hPa 0,0 l/m 0 min 0 min 7 W/m 16,1 km/h (3 Bft) 97,83 %
05.10.2020 18:54 13,8 C 12,8 C 11,1 C 85 % 1001,1 hPa 0,0 l/m 0 min 0 min 6 W/m 12,9 km/h (3 Bft) 95,74 %
05.10.2020 18:56 13,7 C 12,2 C 11,1 C 85 % 1001,1 hPa 0,0 l/m 0 min 0 min 5 W/m 16,1 km/h (3 Bft) 95,74 %
05.10.2020 18:58 13,7 C 12,2 C 11,1 C 85 % 1001,1 hPa 0,0 l/m 0 min 0 min 5 W/m 6,4 km/h (2 Bft) 95,74 %
05.10.2020 19:00 13,7 C 12,2 C 11,1 C 85 % 1001,2 hPa 0,0 l/m 0 min 0 min 0 W/m 12,9 km/h (3 Bft) 97,87 %
05.10.2020 19:02 13,7 C 12,2 C 11,1 C 85 % 1001,2 hPa 0,0 l/m 0 min 0 min 0 W/m 16,1 km/h (3 Bft) 97,87 %
05.10.2020 19:04 13,6 C 12,2 C 11,1 C 85 % 1001,1 hPa 0,0 l/m 0 min 0 min 0 W/m 16,1 km/h (3 Bft) 97,83 %
05.10.2020 19:06 13,6 C 12,2 C 11,1 C 85 % 1001,1 hPa 0,0 l/m 0 min 0 min 0 W/m 16,1 km/h (3 Bft) 97,87 %
05.10.2020 19:08 13,6 C 12,2 C 11,1 C 85 % 1001,1 hPa 0,0 l/m 0 min 0 min 0 W/m 19,3 km/h (3 Bft) 95,74 %
05.10.2020 19:10 13,6 C 12,2 C 11,1 C 85 % 1001,2 hPa 0,0 l/m 0 min 0 min 0 W/m 3,2 km/h (1 Bft) 93,62 %
05.10.2020 19:12 13,5 C 12,2 C 11,1 C 85 % 1001,1 hPa 0,0 l/m 0 min 0 min 0 W/m 3,2 km/h (1 Bft) 93,62 %
05.10.2020 19:14 13,5 C 12,2 C 11,1 C 85 % 1001,2 hPa 0,0 l/m 0 min 0 min 0 W/m 0,0 km/h (0 Bft) 95,74 %
05.10.2020 19:16 13,4 C 11,7 C 10,6 C 85 % 1001,2 hPa 0,0 l/m 0 min 0 min 0 W/m 3,2 km/h (1 Bft) 95,65 %
05.10.2020 19:18 13,4 C 11,7 C 10,6 C 85 % 1001,2 hPa 0,0 l/m 0 min 0 min 0 W/m 0,0 km/h (0 Bft) 95,74 %
05.10.2020 19:20 13,4 C 11,7 C 10,6 C 85 % 1001,2 hPa 0,0 l/m 0 min 0 min 0 W/m 0,0 km/h (0 Bft) 95,74 %
05.10.2020 19:22 13,4 C 11,7 C 10,6 C 85 % 1001,2 hPa 0,0 l/m 0 min 0 min 0 W/m 3,2 km/h (1 Bft) 97,87 %
05.10.2020 19:24 13,3 C 11,7 C 10,6 C 85 % 1001,3 hPa 0,0 l/m 0 min 0 min 0 W/m 3,2 km/h (1 Bft) 95,74 %
05.10.2020 19:26 13,3 C 11,7 C 10,6 C 86 % 1001,3 hPa 0,0 l/m 0 min 0 min 0 W/m 3,2 km/h (1 Bft) 97,87 %
05.10.2020 19:28 13,3 C 11,7 C 10,6 C 86 % 1001,3 hPa 0,0 l/m 0 min 0 min 0 W/m 12,9 km/h (3 Bft) 97,83 %
05.10.2020 19:30 13,3 C 11,7 C 10,6 C 86 % 1001,3 hPa 0,0 l/m 0 min 0 min 0 W/m 6,4 km/h (2 Bft) 97,87 %
05.10.2020 19:32 13,2 C 11,7 C 10,6 C 86 % 1001,3 hPa 0,0 l/m 0 min 0 min 0 W/m 3,2 km/h (1 Bft) 95,74 %
05.10.2020 19:34 13,2 C 11,7 C 10,6 C 86 % 1001,3 hPa 0,0 l/m 0 min 0 min 0 W/m 3,2 km/h (1 Bft) 97,87 %
05.10.2020 19:36 13,2 C 11,7 C 11,1 C 86 % 1001,3 hPa 0,0 l/m 0 min 0 min 0 W/m 0,0 km/h (0 Bft) 97,87 %
05.10.2020 19:38 13,2 C 11,7 C 11,1 C 86 % 1001,3 hPa 0,0 l/m 0 min 0 min 0 W/m 0,0 km/h (0 Bft) 98,15 %
05.10.2020 19:40 13,1 C 11,7 C 10,6 C 86 % 1001,4 hPa 0,0 l/m 0 min 0 min 0 W/m 6,4 km/h (2 Bft) 95,74 %
05.10.2020 19:42 13,1 C 11,7 C 10,6 C 86 % 1001,4 hPa 0,0 l/m 0 min 0 min 0 W/m 12,9 km/h (3 Bft) 93,62 %
05.10.2020 19:44 13,1 C 11,7 C 10,6 C 87 % 1001,5 hPa 0,0 l/m 0 min 0 min 0 W/m 6,4 km/h (2 Bft) 97,87 %
05.10.2020 19:46 13,1 C 11,7 C 10,6 C 87 % 1001,5 hPa 0,0 l/m 0 min 0 min 0 W/m 12,9 km/h (3 Bft) 97,83 %
05.10.2020 19:48 13,1 C 11,7 C 10,6 C 87 % 1001,5 hPa 0,0 l/m 0 min 0 min 0 W/m 6,4 km/h (2 Bft) 97,87 %
05.10.2020 19:50 13,1 C 11,7 C 11,1 C 87 % 1001,5 hPa 0,0 l/m 0 min 0 min 0 W/m 6,4 km/h (2 Bft) 93,62 %
05.10.2020 19:52 13,0 C 11,7 C 11,1 C 87 % 1001,4 hPa 0,0 l/m 0 min 0 min 0 W/m 3,2 km/h (1 Bft) 97,87 %
05.10.2020 19:54 13,0 C 11,7 C 10,6 C 87 % 1001,5 hPa 0,0 l/m 0 min 0 min 0 W/m 0,0 km/h (0 Bft) 97,87 %
05.10.2020 19:56 12,9 C 11,7 C 10,6 C 87 % 1001,5 hPa 0,0 l/m 0 min 0 min 0 W/m 0,0 km/h (0 Bft) 97,87 %
05.10.2020 19:58 12,9 C 11,7 C 10,6 C 87 % 1001,5 hPa 0,0 l/m 0 min 0 min 0 W/m 6,4 km/h (2 Bft) 97,83 %
05.10.2020 20:00 12,9 C 11,7 C 10,6 C 87 % 1001,5 hPa 0,0 l/m 0 min 0 min 0 W/m 12,9 km/h (3 Bft) 97,87 %
05.10.2020 20:02 12,9 C 11,7 C 10,6 C 87 % 1001,5 hPa 0,0 l/m 0 min 0 min 0 W/m 6,4 km/h (2 Bft) 97,87 %
05.10.2020 20:04 12,9 C 11,7 C 10,6 C 88 % 1001,6 hPa 0,0 l/m 0 min 0 min 0 W/m 6,4 km/h (2 Bft) 95,74 %
05.10.2020 20:06 12,9 C 11,7 C 11,1 C 88 % 1001,6 hPa 0,0 l/m 0 min 0 min 0 W/m 12,9 km/h (3 Bft) 97,87 %
05.10.2020 20:08 12,9 C 11,7 C 11,1 C 88 % 1001,6 hPa 0,0 l/m 0 min 0 min 0 W/m 9,7 km/h (2 Bft) 93,62 %
05.10.2020 20:10 12,9 C 11,7 C 11,1 C 88 % 1001,6 hPa 0,0 l/m 0 min 0 min 0 W/m 3,2 km/h (1 Bft) 94,74 %
05.10.2020 20:12 12,8 C 11,7 C 11,1 C 88 % 1001,6 hPa 0,0 l/m 0 min 0 min 0 W/m 6,4 km/h (2 Bft) 95,65 %
05.10.2020 20:14 12,8 C 11,7 C 11,1 C 88 % 1001,6 hPa 0,0 l/m 0 min 0 min 0 W/m 3,2 km/h (1 Bft) 95,74 %
05.10.2020 20:16 12,8 C 11,7 C 10,6 C 88 % 1001,6 hPa 0,0 l/m 0 min 0 min 0 W/m 6,4 km/h (2 Bft) 97,87 %
05.10.2020 20:18 12,8 C 11,7 C 11,1 C 88 % 1001,6 hPa 0,0 l/m 0 min 0 min 0 W/m 6,4 km/h (2 Bft) 97,87 %
05.10.2020 20:20 12,8 C 11,7 C 10,6 C 88 % 1001,5 hPa 0,0 l/m 0 min 0 min 0 W/m 3,2 km/h (1 Bft) 95,74 %
05.10.2020 20:22 12,8 C 11,7 C 10,6 C 88 % 1001,5 hPa 0,0 l/m 0 min 0 min 0 W/m 6,4 km/h (2 Bft) 95,74 %
05.10.2020 20:24 12,8 C 11,7 C 10,6 C 89 % 1001,5 hPa 0,0 l/m 0 min 0 min 0 W/m 9,7 km/h (2 Bft) 97,83 %
05.10.2020 20:26 12,8 C 11,7 C 10,6 C 89 % 1001,5 hPa 0,0 l/m 0 min 0 min 0 W/m 6,4 km/h (2 Bft) 97,87 %
05.10.2020 20:28 12,8 C 11,7 C 10,6 C 89 % 1001,5 hPa 0,0 l/m 0 min 0 min 0 W/m 3,2 km/h (1 Bft) 97,87 %
05.10.2020 20:30 12,8 C 11,7 C 10,6 C 89 % 1001,6 hPa 0,0 l/m 0 min 0 min 0 W/m 0,0 km/h (0 Bft) 97,87 %
05.10.2020 20:32 12,8 C 11,7 C 10,6 C 89 % 1001,5 hPa 0,0 l/m 0 min 0 min 0 W/m 0,0 km/h (0 Bft) 97,87 %
05.10.2020 20:34 12,8 C 11,7 C 10,6 C 89 % 1001,5 hPa 0,0 l/m 0 min 0 min 0 W/m 0,0 km/h (0 Bft) 97,87 %
05.10.2020 20:36 12,7 C 11,7 C 10,6 C 89 % 1001,5 hPa 0,0 l/m 0 min 0 min 0 W/m 9,7 km/h (2 Bft) 97,83 %
05.10.2020 20:38 12,7 C 11,7 C 10,6 C 89 % 1001,5 hPa 0,0 l/m 0 min 0 min 0 W/m 6,4 km/h (2 Bft) 95,74 %
05.10.2020 20:40 12,7 C 11,7 C 10,6 C 89 % 1001,5 hPa 0,0 l/m 0 min 0 min 0 W/m 3,2 km/h (1 Bft) 97,87 %
05.10.2020 20:42 12,7 C 11,7 C 10,6 C 89 % 1001,5 hPa 0,0 l/m 0 min 0 min 0 W/m 6,4 km/h (2 Bft) 97,87 %
05.10.2020 20:44 12,7 C 11,7 C 10,6 C 89 % 1001,5 hPa 0,0 l/m 0 min 0 min 0 W/m 12,9 km/h (3 Bft) 97,87 %
05.10.2020 20:46 12,7 C 11,7 C 10,6 C 89 % 1001,5 hPa 0,0 l/m 0 min 0 min 0 W/m 0,0 km/h (0 Bft) 95,74 %
05.10.2020 20:48 12,6 C 11,7 C 10,6 C 89 % 1001,5 hPa 0,0 l/m 0 min 0 min 0 W/m 12,9 km/h (3 Bft) 95,65 %
05.10.2020 20:50 12,6 C 11,1 C 10,6 C 89 % 1001,4 hPa 0,0 l/m 0 min 0 min 0 W/m 6,4 km/h (2 Bft) 95,74 %
05.10.2020 20:52 12,6 C 11,1 C 10,6 C 89 % 1001,5 hPa 0,0 l/m 0 min 0 min 0 W/m 6,4 km/h (2 Bft) 95,74 %
05.10.2020 20:54 12,6 C 11,1 C 10,6 C 89 % 1001,4 hPa 0,0 l/m 0 min 0 min 0 W/m 3,2 km/h (1 Bft) 97,87 %
05.10.2020 20:56 12,6 C 11,1 C 10,6 C 89 % 1001,5 hPa 0,0 l/m 0 min 0 min 0 W/m 16,1 km/h (3 Bft) 97,87 %
05.10.2020 20:58 12,6 C 11,1 C 10,6 C 89 % 1001,5 hPa 0,0 l/m 0 min 0 min 0 W/m 3,2 km/h (1 Bft) 97,83 %
05.10.2020 21:00 12,6 C 11,1 C 10,6 C 89 % 1001,6 hPa 0,0 l/m 0 min 0 min 0 W/m 12,9 km/h (3 Bft) 93,62 %
05.10.2020 21:02 12,5 C 11,1 C 10,6 C 89 % 1001,6 hPa 0,0 l/m 0 min 0 min 0 W/m 6,4 km/h (2 Bft) 97,87 %
05.10.2020 21:04 12,5 C 11,1 C 10,6 C 89 % 1001,6 hPa 0,0 l/m 0 min 0 min 0 W/m 6,4 km/h (2 Bft) 100,00 %
05.10.2020 21:06 12,5 C 11,1 C 10,6 C 89 % 1001,6 hPa 0,0 l/m 0 min 0 min 0 W/m 0,0 km/h (0 Bft) 97,87 %
05.10.2020 21:08 12,4 C 11,1 C 10,6 C 89 % 1001,5 hPa 0,0 l/m 0 min 0 min 0 W/m 0,0 km/h (0 Bft) 95,74 %
05.10.2020 21:10 12,4 C 11,1 C 10,6 C 89 % 1001,5 hPa 0,0 l/m 0 min 0 min 0 W/m 0,0 km/h (0 Bft) 97,83 %
05.10.2020 21:12 12,4 C 11,1 C 10,6 C 90 % 1001,6 hPa 0,0 l/m 0 min 0 min 0 W/m 0,0 km/h (0 Bft) 97,87 %
05.10.2020 21:14 12,4 C 11,1 C 10,6 C 89 % 1001,5 hPa 0,0 l/m 0 min 0 min 0 W/m 0,0 km/h (0 Bft) 97,87 %
05.10.2020 21:16 12,4 C 11,1 C 10,6 C 89 % 1001,5 hPa 0,0 l/m 0 min 0 min 0 W/m 0,0 km/h (0 Bft) 97,87 %
05.10.2020 21:18 12,4 C 11,1 C 10,6 C 90 % 1001,5 hPa 0,0 l/m 0 min 0 min 0 W/m 0,0 km/h (0 Bft) 97,87 %
05.10.2020 21:20 12,4 C 11,1 C 10,6 C 90 % 1001,5 hPa 0,0 l/m 0 min 0 min 0 W/m 0,0 km/h (0 Bft) 97,87 %
05.10.2020 21:22 12,4 C 11,1 C 10,6 C 90 % 1001,6 hPa 0,0 l/m 0 min 2 min 0 W/m 0,0 km/h (0 Bft) 97,83 %
05.10.2020 21:24 12,3 C 11,1 C 10,6 C 90 % 1001,5 hPa 0,0 l/m 0 min 0 min 0 W/m 3,2 km/h (1 Bft) 97,87 %
05.10.2020 21:26 12,3 C 11,1 C 10,6 C 90 % 1001,5 hPa 0,0 l/m 0 min 0 min 0 W/m 12,9 km/h (3 Bft) 97,87 %
05.10.2020 21:28 12,3 C 11,1 C 10,6 C 90 % 1001,5 hPa 0,0 l/m 0 min 0 min 0 W/m 6,4 km/h (2 Bft) 97,87 %
05.10.2020 21:30 12,3 C 11,1 C 10,6 C 90 % 1001,6 hPa 0,0 l/m 0 min 0 min 0 W/m 12,9 km/h (3 Bft) 95,74 %
05.10.2020 21:32 12,3 C 11,1 C 10,6 C 90 % 1001,5 hPa 0,0 l/m 0 min 0 min 0 W/m 12,9 km/h (3 Bft) 97,87 %
05.10.2020 21:34 12,3 C 11,1 C 10,6 C 90 % 1001,5 hPa 0,0 l/m 0 min 0 min 0 W/m 6,4 km/h (2 Bft) 97,83 %
05.10.2020 21:36 12,3 C 11,1 C 10,6 C 90 % 1001,5 hPa 0,0 l/m 0 min 0 min 0 W/m 3,2 km/h (1 Bft) 97,87 %
05.10.2020 21:38 12,3 C 11,1 C 10,6 C 90 % 1001,5 hPa 0,0 l/m 0 min 0 min 0 W/m 3,2 km/h (1 Bft) 97,87 %
05.10.2020 21:40 12,3 C 11,1 C 10,6 C 90 % 1001,5 hPa 0,0 l/m 0 min 0 min 0 W/m 12,9 km/h (3 Bft) 95,74 %
05.10.2020 21:42 12,3 C 11,1 C 10,6 C 91 % 1001,4 hPa 0,0 l/m 0 min 0 min 0 W/m 6,4 km/h (2 Bft) 95,74 %
05.10.2020 21:44 12,2 C 11,1 C 10,6 C 91 % 1001,5 hPa 0,0 l/m 0 min 0 min 0 W/m 6,4 km/h (2 Bft) 95,74 %
05.10.2020 21:46 12,2 C 11,1 C 10,6 C 91 % 1001,5 hPa 0,0 l/m 0 min 0 min 0 W/m 6,4 km/h (2 Bft) 95,65 %
05.10.2020 21:48 12,2 C 11,1 C 10,6 C 91 % 1001,4 hPa 0,0 l/m 0 min 0 min 0 W/m 12,9 km/h (3 Bft) 97,87 %
05.10.2020 21:50 12,2 C 11,1 C 10,6 C 90 % 1001,4 hPa 0,0 l/m 0 min 0 min 0 W/m 6,4 km/h (2 Bft) 93,62 %
05.10.2020 21:52 12,2 C 11,1 C 10,6 C 90 % 1001,4 hPa 0,0 l/m 0 min 0 min 0 W/m 3,2 km/h (1 Bft) 95,74 %
05.10.2020 21:54 12,2 C 11,1 C 10,0 C 90 % 1001,3 hPa 0,0 l/m 0 min 0 min 0 W/m 6,4 km/h (2 Bft) 97,87 %
05.10.2020 21:56 12,2 C 11,1 C 10,0 C 90 % 1001,3 hPa 0,0 l/m 0 min 0 min 0 W/m 6,4 km/h (2 Bft) 97,87 %
05.10.2020 21:58 12,2 C 11,1 C 10,0 C 91 % 1001,3 hPa 0,0 l/m 0 min 0 min 0 W/m 16,1 km/h (3 Bft) 97,83 %
05.10.2020 22:00 12,1 C 11,1 C 10,0 C 91 % 1001,3 hPa 0,0 l/m 0 min 0 min 0 W/m 3,2 km/h (1 Bft) 100,00 %
05.10.2020 22:02 12,1 C 11,1 C 10,0 C 91 % 1001,3 hPa 0,0 l/m 0 min 0 min 0 W/m 6,4 km/h (2 Bft) 100,00 %
05.10.2020 22:04 12,1 C 10,6 C 10,0 C 91 % 1001,3 hPa 0,0 l/m 0 min 0 min 0 W/m 6,4 km/h (2 Bft) 100,00 %
05.10.2020 22:06 12,1 C 10,6 C 10,0 C 91 % 1001,3 hPa 0,0 l/m 0 min 0 min 0 W/m 6,4 km/h (2 Bft) 100,00 %
05.10.2020 22:08 12,1 C 10,6 C 10,0 C 91 % 1001,2 hPa 0,0 l/m 0 min 0 min 0 W/m 12,9 km/h (3 Bft) 97,83 %
05.10.2020 22:10 12,1 C 10,6 C 10,0 C 91 % 1001,2 hPa 0,0 l/m 0 min 0 min 0 W/m 6,4 km/h (2 Bft) 100,00 %
05.10.2020 22:12 12,1 C 11,1 C 10,0 C 91 % 1001,2 hPa 0,0 l/m 0 min 0 min 0 W/m 16,1 km/h (3 Bft) 100,00 %
05.10.2020 22:14 12,0 C 11,1 C 10,0 C 91 % 1001,2 hPa 0,0 l/m 0 min 0 min 0 W/m 12,9 km/h (3 Bft) 100,00 %
05.10.2020 22:16 12,0 C 11,1 C 10,0 C 91 % 1001,2 hPa 0,0 l/m 0 min 0 min 0 W/m 12,9 km/h (3 Bft) 100,00 %
05.10.2020 22:18 11,9 C 11,1 C 10,0 C 91 % 1001,2 hPa 0,0 l/m 0 min 0 min 0 W/m 6,4 km/h (2 Bft) 100,00 %
05.10.2020 22:20 11,9 C 11,1 C 10,0 C 91 % 1001,1 hPa 0,0 l/m 0 min 0 min 0 W/m 6,4 km/h (2 Bft) 100,00 %
05.10.2020 22:22 11,9 C 11,1 C 10,0 C 91 % 1001,2 hPa 0,0 l/m 0 min 0 min 0 W/m 12,9 km/h (3 Bft) 100,00 %
05.10.2020 22:24 11,9 C 11,1 C 10,0 C 91 % 1001,2 hPa 0,0 l/m 0 min 0 min 0 W/m 16,1 km/h (3 Bft) 100,00 %
05.10.2020 22:26 11,9 C 10,6 C 10,0 C 91 % 1001,2 hPa 0,0 l/m 0 min 0 min 0 W/m 16,1 km/h (3 Bft) 100,00 %
05.10.2020 22:28 11,9 C 10,6 C 10,0 C 91 % 1001,2 hPa 0,0 l/m 0 min 0 min 0 W/m 6,4 km/h (2 Bft) 100,00 %
05.10.2020 22:30 11,9 C 10,6 C 10,0 C 91 % 1001,2 hPa 0,0 l/m 0 min 0 min 0 W/m 0,0 km/h (0 Bft) 100,00 %
05.10.2020 22:32 11,8 C 10,6 C 10,0 C 91 % 1001,1 hPa 0,0 l/m 0 min 0 min 0 W/m 6,4 km/h (2 Bft) 100,00 %
05.10.2020 22:34 11,8 C 10,6 C 10,0 C 91 % 1001,1 hPa 0,0 l/m 0 min 0 min 0 W/m 3,2 km/h (1 Bft) 100,00 %
05.10.2020 22:36 11,8 C 10,6 C 10,0 C 91 % 1001,1 hPa 0,0 l/m 0 min 0 min 0 W/m 0,0 km/h (0 Bft) 97,87 %
05.10.2020 22:38 11,8 C 10,6 C 10,0 C 91 % 1001,1 hPa 0,0 l/m 0 min 0 min 0 W/m 0,0 km/h (0 Bft) 97,87 %
05.10.2020 22:40 11,8 C 10,6 C 10,0 C 91 % 1001,1 hPa 0,0 l/m 0 min 0 min 0 W/m 0,0 km/h (0 Bft) 97,87 %
05.10.2020 22:42 11,8 C 10,6 C 10,0 C 91 % 1001,1 hPa 0,0 l/m 0 min 0 min 0 W/m 0,0 km/h (0 Bft) 97,87 %
05.10.2020 22:44 11,8 C 10,6 C 10,0 C 91 % 1001,0 hPa 0,0 l/m 0 min 0 min 0 W/m 12,9 km/h (3 Bft) 97,83 %
05.10.2020 22:46 11,7 C 10,6 C 10,0 C 91 % 1001,0 hPa 0,0 l/m 0 min 0 min 0 W/m 12,9 km/h (3 Bft) 97,87 %
05.10.2020 22:48 11,7 C 10,6 C 10,0 C 91 % 1001,0 hPa 0,0 l/m 0 min 0 min 0 W/m 16,1 km/h (3 Bft) 97,87 %
05.10.2020 22:50 11,7 C 10,6 C 10,0 C 91 % 1001,0 hPa 0,0 l/m 0 min 0 min 0 W/m 6,4 km/h (2 Bft) 97,87 %
05.10.2020 22:52 11,7 C 10,6 C 10,0 C 91 % 1001,0 hPa 0,0 l/m 0 min 0 min 0 W/m 6,4 km/h (2 Bft) 97,87 %
05.10.2020 22:54 11,7 C 10,6 C 10,0 C 91 % 1001,1 hPa 0,0 l/m 0 min 0 min 0 W/m 12,9 km/h (3 Bft) 97,87 %
05.10.2020 22:56 11,7 C 10,6 C 10,0 C 91 % 1001,2 hPa 0,0 l/m 0 min 0 min 0 W/m 3,2 km/h (1 Bft) 97,83 %
05.10.2020 22:58 11,6 C 10,6 C 10,0 C 91 % 1001,1 hPa 0,0 l/m 0 min 0 min 0 W/m 0,0 km/h (0 Bft) 97,87 %
05.10.2020 23:00 11,6 C 10,6 C 10,0 C 91 % 1001,0 hPa 0,0 l/m 0 min 0 min 0 W/m 0,0 km/h (0 Bft) 97,87 %
05.10.2020 23:02 11,6 C 10,6 C 10,0 C 91 % 1001,1 hPa 0,0 l/m 0 min 0 min 0 W/m 0,0 km/h (0 Bft) 95,74 %
05.10.2020 23:04 11,6 C 10,6 C 10,0 C 91 % 1001,1 hPa 0,0 l/m 0 min 0 min 0 W/m 3,2 km/h (1 Bft) 95,74 %
05.10.2020 23:06 11,6 C 10,6 C 10,0 C 91 % 1001,1 hPa 0,0 l/m 0 min 0 min 0 W/m 6,4 km/h (2 Bft) 95,65 %
05.10.2020 23:08 11,5 C 10,0 C 9,4 C 91 % 1001,1 hPa 0,0 l/m 0 min 0 min 0 W/m 12,9 km/h (3 Bft) 95,74 %
05.10.2020 23:10 11,5 C 10,6 C 9,4 C 91 % 1001,1 hPa 0,0 l/m 0 min 0 min 0 W/m 12,9 km/h (3 Bft) 95,74 %
05.10.2020 23:12 11,4 C 10,6 C 9,4 C 91 % 1001,1 hPa 0,0 l/m 0 min 0 min 0 W/m 12,9 km/h (3 Bft) 95,74 %
05.10.2020 23:14 11,4 C 10,6 C 9,4 C 91 % 1001,1 hPa 0,0 l/m 0 min 0 min 0 W/m 12,9 km/h (3 Bft) 93,62 %
05.10.2020 23:16 11,4 C 10,6 C 9,4 C 91 % 1001,0 hPa 0,0 l/m 0 min 0 min 0 W/m 6,4 km/h (2 Bft) 95,74 %
05.10.2020 23:18 11,4 C 10,6 C 9,4 C 91 % 1001,1 hPa 0,0 l/m 0 min 0 min 0 W/m 12,9 km/h (3 Bft) 95,65 %
05.10.2020 23:20 11,4 C 10,6 C 9,4 C 91 % 1001,1 hPa 0,0 l/m 0 min 0 min 0 W/m 12,9 km/h (3 Bft) 93,62 %
05.10.2020 23:22 11,4 C 10,6 C 9,4 C 91 % 1001,1 hPa 0,0 l/m 0 min 0 min 0 W/m 3,2 km/h (1 Bft) 95,74 %
05.10.2020 23:24 11,4 C 10,6 C 9,4 C 91 % 1001,1 hPa 0,0 l/m 0 min 0 min 0 W/m 6,4 km/h (2 Bft) 97,87 %
05.10.2020 23:26 11,3 C 10,6 C 10,0 C 91 % 1001,0 hPa 0,0 l/m 0 min 0 min 0 W/m 3,2 km/h (1 Bft) 95,74 %
05.10.2020 23:28 11,3 C 10,6 C 10,0 C 91 % 1001,0 hPa 0,0 l/m 0 min 0 min 0 W/m 0,0 km/h (0 Bft) 95,74 %
05.10.2020 23:30 11,3 C 10,6 C 10,0 C 91 % 1001,0 hPa 0,0 l/m 0 min 0 min 0 W/m 3,2 km/h (1 Bft) 95,65 %
05.10.2020 23:32 11,3 C 10,0 C 9,4 C 91 % 1001,0 hPa 0,0 l/m 0 min 0 min 0 W/m 3,2 km/h (1 Bft) 93,62 %
05.10.2020 23:34 11,3 C 10,0 C 9,4 C 91 % 1001,0 hPa 0,0 l/m 0 min 0 min 0 W/m 6,4 km/h (2 Bft) 95,74 %
05.10.2020 23:36 11,3 C 10,0 C 9,4 C 91 % 1001,0 hPa 0,0 l/m 0 min 0 min 0 W/m 3,2 km/h (1 Bft) 93,62 %
05.10.2020 23:38 11,3 C 10,0 C 9,4 C 91 % 1001,0 hPa 0,0 l/m 0 min 0 min 0 W/m 6,4 km/h (2 Bft) 93,62 %
05.10.2020 23:40 11,3 C 10,0 C 9,4 C 91 % 1000,9 hPa 0,0 l/m 0 min 0 min 0 W/m 0,0 km/h (0 Bft) 95,74 %
05.10.2020 23:42 11,3 C 10,0 C 9,4 C 91 % 1000,9 hPa 0,0 l/m 0 min 0 min 0 W/m 12,9 km/h (3 Bft) 95,65 %
05.10.2020 23:44 11,3 C 10,0 C 9,4 C 91 % 1000,9 hPa 0,0 l/m 0 min 0 min 0 W/m 6,4 km/h (2 Bft) 97,87 %
05.10.2020 23:46 11,2 C 10,0 C 9,4 C 91 % 1000,9 hPa 0,0 l/m 0 min 0 min 0 W/m 12,9 km/h (3 Bft) 95,74 %
05.10.2020 23:48 11,2 C 10,0 C 10,0 C 91 % 1000,9 hPa 0,0 l/m 0 min 0 min 0 W/m 16,1 km/h (3 Bft) 95,74 %
05.10.2020 23:50 11,2 C 10,0 C 10,0 C 91 % 1000,9 hPa 0,0 l/m 0 min 0 min 0 W/m 3,2 km/h (1 Bft) 95,74 %
05.10.2020 23:52 11,2 C 10,0 C 10,0 C 91 % 1000,9 hPa 0,0 l/m 0 min 0 min 0 W/m 3,2 km/h (1 Bft) 97,87 %
05.10.2020 23:54 11,2 C 10,0 C 9,4 C 91 % 1000,9 hPa 0,0 l/m 0 min 0 min 0 W/m 12,9 km/h (3 Bft) 97,83 %
05.10.2020 23:56 11,2 C 10,0 C 9,4 C 91 % 1000,8 hPa 0,0 l/m 0 min 0 min 0 W/m 12,9 km/h (3 Bft) 95,74 %
05.10.2020 23:58 11,2 C 10,0 C 10,0 C 91 % 1000,8 hPa 0,0 l/m 0 min 0 min 0 W/m 12,9 km/h (3 Bft) 95,74 %
_ Min-Zeit 00:00 10:18 10:32 17:38 03:55 - - - - 19:14 12:42
Minimum _ 10,4 C 8,9 C 8,9 C 82 % 997,9 hPa - - - - 0,0 km/h (0 Bft) 41,67 %
_ Max-Zeit 17:18 17:18 16:02 11:36 20:04 09:12 15:32 08:10 16:02 01:10 00:08
Maximum _ 14,3 C 14,4 C 12,2 C 94 % 1001,6 hPa 0,2 l/m 2 min 2 min 290 W/m 38,6 km/h
O-SO (5 Bft)
100,00 %
Durchschnitt _ 11,8 C 10,8 C 10,2 C 90 % 999,5 hPa #1,4 l/m #40 min. #2:42 h 68 W/m 16,7 km/h (3 Bft) 97,14 %
© 2020 W. Hausmann